Time,TemperatureF,DewpointF,PressureIn,WindDirection,WindDirectionDegrees,WindSpeedMPH,WindSpeedGustMPH,Humidity,HourlyPrecipIn,Conditions,Clouds,dailyrainin,SoftwareType,DateUTC
2013-06-06 00:01:00,59.7,37.2,29.97,SE,138,0.0,0.0,43,0.00,,---,0.00,VWS V14.01,2013-06-06 04:01:00,
2013-06-06 00:06:00,59.7,37.2,29.97,SE,138,0.0,0.0,43,0.00,,---,0.00,VWS V14.01,2013-06-06 04:06:00,
2013-06-06 00:07:00,59.7,37.2,29.97,SE,138,0.0,0.0,43,0.00,,---,0.00,VWS V14.01,2013-06-06 04:07:00,
2013-06-06 00:11:00,59.5,36.5,29.97,SE,138,0.0,0.0,42,0.00,,---,0.00,VWS V14.01,2013-06-06 04:11:00,
2013-06-06 00:12:00,59.5,36.5,29.97,SE,138,0.0,0.0,42,0.00,,---,0.00,VWS V14.01,2013-06-06 04:12:00,
2013-06-06 00:16:00,59.4,36.3,29.97,SE,138,0.0,0.0,42,0.00,,---,0.00,VWS V14.01,2013-06-06 04:16:00,
2013-06-06 00:17:00,59.4,36.3,29.97,SE,138,0.0,0.0,42,0.00,,---,0.00,VWS V14.01,2013-06-06 04:17:00,
2013-06-06 00:21:00,59.4,36.3,29.97,SE,138,0.0,0.0,42,0.00,,---,0.00,VWS V14.01,2013-06-06 04:21:00,
2013-06-06 00:22:00,59.4,36.3,29.97,SE,138,0.0,0.0,42,0.00,,---,0.00,VWS V14.01,2013-06-06 04:22:00,
2013-06-06 00:26:00,59.2,35.5,29.97,SE,138,0.0,0.0,41,0.00,,---,0.00,VWS V14.01,2013-06-06 04:26:00,
2013-06-06 00:27:00,59.2,35.5,29.97,SE,138,0.0,0.0,41,0.00,,---,0.00,VWS V14.01,2013-06-06 04:27:00,
2013-06-06 00:31:00,59.0,35.3,29.97,SE,138,0.0,0.0,41,0.00,,---,0.00,VWS V14.01,2013-06-06 04:31:00,
2013-06-06 00:32:00,59.0,35.3,29.97,SE,138,0.0,0.0,41,0.00,,---,0.00,VWS V14.01,2013-06-06 04:32:00,
2013-06-06 00:36:00,59.0,35.3,29.97,SE,138,0.0,0.0,41,0.00,,---,0.00,VWS V14.01,2013-06-06 04:36:00,
2013-06-06 00:37:00,59.0,35.3,29.97,SE,138,0.0,0.0,41,0.00,,---,0.00,VWS V14.01,2013-06-06 04:37:00,
2013-06-06 00:38:00,59.0,35.3,29.97,SE,138,0.0,0.0,41,0.00,,---,0.00,VWS V14.01,2013-06-06 04:38:00,
2013-06-06 00:41:00,58.8,35.8,29.97,SE,138,0.0,0.0,42,0.00,,---,0.00,VWS V14.01,2013-06-06 04:41:00,
2013-06-06 00:42:00,58.8,35.8,29.97,SE,138,0.0,0.0,42,0.00,,---,0.00,VWS V14.01,2013-06-06 04:42:00,
2013-06-06 00:43:00,58.8,35.8,29.97,SE,138,0.0,0.0,42,0.00,,---,0.00,VWS V14.01,2013-06-06 04:43:00,
2013-06-06 00:47:00,58.8,36.4,29.97,SE,138,0.0,0.0,43,0.00,,---,0.00,VWS V14.01,2013-06-06 04:47:00,
2013-06-06 00:48:00,58.8,36.4,29.97,SE,138,0.0,0.0,43,0.00,,---,0.00,VWS V14.01,2013-06-06 04:48:00,
2013-06-06 00:52:00,58.8,36.4,29.97,SE,138,0.0,0.0,43,0.00,,---,0.00,VWS V14.01,2013-06-06 04:52:00,
2013-06-06 00:53:00,58.8,36.4,29.97,SE,138,0.0,0.0,43,0.00,,---,0.00,VWS V14.01,2013-06-06 04:53:00,
2013-06-06 00:57:00,58.8,37.0,29.97,SE,138,0.0,0.0,44,0.00,,---,0.00,VWS V14.01,2013-06-06 04:57:00,
2013-06-06 00:58:00,58.8,37.0,29.97,SE,138,0.0,0.0,44,0.00,,---,0.00,VWS V14.01,2013-06-06 04:58:00,
2013-06-06 00:59:00,58.8,37.0,29.97,SE,138,0.0,0.0,44,0.00,,---,0.00,VWS V14.01,2013-06-06 04:59:00,
2013-06-06 01:02:00,58.8,37.5,29.97,SE,138,0.0,0.0,45,0.00,,---,0.00,VWS V14.01,2013-06-06 05:02:00,
2013-06-06 01:03:00,58.8,37.5,29.97,SE,138,0.0,0.0,45,0.00,,---,0.00,VWS V14.01,2013-06-06 05:03:00,
2013-06-06 01:04:00,58.8,37.5,29.97,SE,138,0.0,0.0,45,0.00,,---,0.00,VWS V14.01,2013-06-06 05:04:00,
2013-06-06 01:07:00,59.0,37.1,29.97,SE,138,0.0,0.0,44,0.00,,---,0.00,VWS V14.01,2013-06-06 05:07:00,
2013-06-06 01:08:00,59.0,37.1,29.97,SE,138,0.0,0.0,44,0.00,,---,0.00,VWS V14.01,2013-06-06 05:08:00,
2013-06-06 01:09:00,59.0,37.1,29.97,SE,138,0.0,0.0,44,0.00,,---,0.00,VWS V14.01,2013-06-06 05:09:00,
2013-06-06 01:12:00,59.0,37.1,29.97,SE,138,0.0,0.0,44,0.00,,---,0.00,VWS V14.01,2013-06-06 05:12:00,
2013-06-06 01:13:00,59.0,37.1,29.97,SE,138,0.0,0.0,44,0.00,,---,0.00,VWS V14.01,2013-06-06 05:13:00,
2013-06-06 01:14:00,59.0,37.1,29.97,SE,138,0.0,0.0,44,0.00,,---,0.00,VWS V14.01,2013-06-06 05:14:00,
2013-06-06 01:15:00,59.2,37.9,29.97,SE,138,0.0,0.0,45,0.00,,---,0.00,VWS V14.01,2013-06-06 05:15:00,
2013-06-06 01:18:00,59.0,37.7,29.97,SE,138,0.0,0.0,45,0.00,,---,0.00,VWS V14.01,2013-06-06 05:18:00,
2013-06-06 01:19:00,59.0,37.7,29.97,SE,138,0.0,0.0,45,0.00,,---,0.00,VWS V14.01,2013-06-06 05:19:00,
2013-06-06 01:20:00,59.0,37.7,29.97,SE,138,0.0,0.0,45,0.00,,---,0.00,VWS V14.01,2013-06-06 05:20:00,
2013-06-06 01:23:00,59.2,37.9,29.97,SE,138,0.0,0.0,45,0.00,,---,0.00,VWS V14.01,2013-06-06 05:23:00,
2013-06-06 01:24:00,59.2,37.9,29.97,SE,138,0.0,0.0,45,0.00,,---,0.00,VWS V14.01,2013-06-06 05:24:00,
2013-06-06 01:25:00,59.2,37.9,29.97,SE,138,0.0,0.0,45,0.00,,---,0.00,VWS V14.01,2013-06-06 05:25:00,
2013-06-06 01:28:00,59.2,37.9,29.97,SE,138,0.0,0.0,45,0.00,,---,0.00,VWS V14.01,2013-06-06 05:28:00,
2013-06-06 01:29:00,59.2,37.9,29.97,SE,138,0.0,0.0,45,0.00,,---,0.00,VWS V14.01,2013-06-06 05:29:00,
2013-06-06 01:30:00,59.2,37.9,29.97,SE,138,0.0,0.0,45,0.00,,---,0.00,VWS V14.01,2013-06-06 05:30:00,
2013-06-06 01:33:00,59.2,37.9,29.97,SE,138,0.0,0.0,45,0.00,,---,0.00,VWS V14.01,2013-06-06 05:33:00,
2013-06-06 01:34:00,59.2,37.9,29.97,SE,138,0.0,0.0,45,0.00,,---,0.00,VWS V14.01,2013-06-06 05:34:00,
2013-06-06 01:35:00,59.2,37.9,29.97,SE,138,0.0,0.0,45,0.00,,---,0.00,VWS V14.01,2013-06-06 05:35:00,
2013-06-06 01:38:00,59.0,38.3,29.97,SE,138,0.0,0.0,46,0.00,,---,0.00,VWS V14.01,2013-06-06 05:38:00,
2013-06-06 01:39:00,59.0,38.3,29.97,SE,138,0.0,0.0,46,0.00,,---,0.00,VWS V14.01,2013-06-06 05:39:00,
2013-06-06 01:40:00,59.0,38.3,29.97,SE,138,0.0,0.0,46,0.00,,---,0.00,VWS V14.01,2013-06-06 05:40:00,
2013-06-06 01:44:00,59.0,38.8,29.97,SE,138,0.0,0.0,47,0.00,,---,0.00,VWS V14.01,2013-06-06 05:44:00,
2013-06-06 01:45:00,59.0,38.8,29.97,SE,138,0.0,0.0,47,0.00,,---,0.00,VWS V14.01,2013-06-06 05:45:00,
2013-06-06 01:46:00,59.0,38.8,29.97,SE,138,0.0,0.0,47,0.00,,---,0.00,VWS V14.01,2013-06-06 05:46:00,
2013-06-06 01:49:00,59.0,38.8,29.97,SE,138,0.0,0.0,47,0.00,,---,0.00,VWS V14.01,2013-06-06 05:49:00,
2013-06-06 01:50:00,59.0,38.8,29.97,SE,138,0.0,0.0,47,0.00,,---,0.00,VWS V14.01,2013-06-06 05:50:00,
2013-06-06 01:51:00,59.0,38.8,29.97,SE,138,0.0,0.0,47,0.00,,---,0.00,VWS V14.01,2013-06-06 05:51:00,
2013-06-06 01:54:00,59.0,38.8,29.97,SE,138,0.0,0.0,47,0.00,,---,0.00,VWS V14.01,2013-06-06 05:54:00,
2013-06-06 01:55:00,59.0,38.8,29.97,SE,138,0.0,0.0,47,0.00,,---,0.00,VWS V14.01,2013-06-06 05:55:00,
2013-06-06 01:56:00,58.8,39.2,29.97,SE,138,0.0,0.0,48,0.00,,---,0.00,VWS V14.01,2013-06-06 05:56:00,
2013-06-06 01:59:00,58.8,39.2,29.97,SE,138,0.0,0.0,48,0.00,,---,0.00,VWS V14.01,2013-06-06 05:59:00,
2013-06-06 02:00:00,58.8,39.2,29.97,SE,138,0.0,0.0,48,0.00,,---,0.00,VWS V14.01,2013-06-06 06:00:00,
2013-06-06 02:01:00,59.0,39.4,29.97,SE,138,0.0,0.0,48,0.00,,---,0.00,VWS V14.01,2013-06-06 06:01:00,
2013-06-06 02:04:00,59.0,39.4,29.97,SE,138,0.0,0.0,48,0.00,,---,0.00,VWS V14.01,2013-06-06 06:04:00,
2013-06-06 02:05:00,59.0,39.4,29.97,SE,138,0.0,0.0,48,0.00,,---,0.00,VWS V14.01,2013-06-06 06:05:00,
2013-06-06 02:06:00,59.0,39.4,29.97,SE,138,0.0,0.0,48,0.00,,---,0.00,VWS V14.01,2013-06-06 06:06:00,
2013-06-06 02:09:00,59.0,39.4,29.97,SE,138,0.0,0.0,48,0.00,,---,0.00,VWS V14.01,2013-06-06 06:09:00,
2013-06-06 02:10:00,59.0,39.4,29.97,SE,138,0.0,0.0,48,0.00,,---,0.00,VWS V14.01,2013-06-06 06:10:00,
2013-06-06 02:12:00,59.0,39.4,29.97,SE,138,0.0,0.0,48,0.00,,---,0.00,VWS V14.01,2013-06-06 06:12:00,
2013-06-06 02:14:00,59.0,39.4,29.97,SE,138,0.0,0.0,48,0.00,,---,0.00,VWS V14.01,2013-06-06 06:14:00,
2013-06-06 02:15:00,59.0,39.4,29.97,SE,138,0.0,0.0,48,0.00,,---,0.00,VWS V14.01,2013-06-06 06:15:00,
2013-06-06 02:17:00,59.0,39.4,29.97,SE,138,0.0,0.0,48,0.00,,---,0.00,VWS V14.01,2013-06-06 06:17:00,
2013-06-06 02:19:00,58.6,39.0,29.97,SE,138,0.0,0.0,48,0.00,,---,0.00,VWS V14.01,2013-06-06 06:19:00,
2013-06-06 02:20:00,58.6,39.0,29.97,SE,138,0.0,0.0,48,0.00,,---,0.00,VWS V14.01,2013-06-06 06:20:00,
2013-06-06 02:22:00,58.6,39.5,29.97,SE,138,0.0,0.0,49,0.00,,---,0.00,VWS V14.01,2013-06-06 06:22:00,
2013-06-06 02:25:00,58.5,39.4,29.97,SE,138,0.0,0.0,49,0.00,,---,0.00,VWS V14.01,2013-06-06 06:25:00,
2013-06-06 02:26:00,58.5,39.4,29.97,SE,138,0.0,0.0,49,0.00,,---,0.00,VWS V14.01,2013-06-06 06:26:00,
2013-06-06 02:27:00,58.5,39.4,29.97,SE,138,0.0,0.0,49,0.00,,---,0.00,VWS V14.01,2013-06-06 06:27:00,
2013-06-06 02:30:00,58.6,39.5,29.97,SE,138,0.0,0.0,49,0.00,,---,0.00,VWS V14.01,2013-06-06 06:30:00,
2013-06-06 02:31:00,58.6,39.5,29.97,SE,138,0.0,0.0,49,0.00,,---,0.00,VWS V14.01,2013-06-06 06:31:00,
2013-06-06 02:32:00,58.6,39.5,29.97,SE,138,0.0,0.0,49,0.00,,---,0.00,VWS V14.01,2013-06-06 06:32:00,
2013-06-06 02:35:00,58.6,39.5,29.97,SE,138,0.0,0.0,49,0.00,,---,0.00,VWS V14.01,2013-06-06 06:35:00,
2013-06-06 02:36:00,58.8,39.7,29.97,SE,138,0.0,0.0,49,0.00,,---,0.00,VWS V14.01,2013-06-06 06:36:00,
2013-06-06 02:37:00,58.6,39.5,29.97,SE,138,0.0,0.0,49,0.00,,---,0.00,VWS V14.01,2013-06-06 06:37:00,
2013-06-06 02:38:00,58.8,39.7,29.97,SE,138,0.0,0.0,49,0.00,,---,0.00,VWS V14.01,2013-06-06 06:38:00,
2013-06-06 02:40:00,58.8,39.7,29.97,SE,138,0.0,0.0,49,0.00,,---,0.00,VWS V14.01,2013-06-06 06:40:00,
2013-06-06 02:41:00,58.8,39.7,29.97,SE,138,0.0,0.0,49,0.00,,---,0.00,VWS V14.01,2013-06-06 06:41:00,
2013-06-06 02:42:00,58.8,39.7,29.97,SE,138,0.0,0.0,49,0.00,,---,0.00,VWS V14.01,2013-06-06 06:42:00,
2013-06-06 02:43:00,58.8,39.7,29.97,SE,138,0.0,0.0,49,0.00,,---,0.00,VWS V14.01,2013-06-06 06:43:00,
2013-06-06 02:46:00,58.6,39.5,29.97,SE,138,0.0,0.0,49,0.00,,---,0.00,VWS V14.01,2013-06-06 06:46:00,
2013-06-06 02:47:00,58.6,39.5,29.97,SE,138,0.0,0.0,49,0.00,,---,0.00,VWS V14.01,2013-06-06 06:47:00,
2013-06-06 02:48:00,58.6,39.5,29.97,SE,138,0.0,0.0,49,0.00,,---,0.00,VWS V14.01,2013-06-06 06:48:00,
2013-06-06 02:51:00,58.8,39.7,29.97,SE,138,0.0,0.0,49,0.00,,---,0.00,VWS V14.01,2013-06-06 06:51:00,
2013-06-06 02:52:00,58.6,39.5,29.97,SE,138,0.0,0.0,49,0.00,,---,0.00,VWS V14.01,2013-06-06 06:52:00,
2013-06-06 02:53:00,58.6,39.0,29.97,SE,138,0.0,0.0,48,0.00,,---,0.00,VWS V14.01,2013-06-06 06:53:00,
2013-06-06 02:56:00,58.5,38.9,29.97,SE,138,0.0,0.0,48,0.00,,---,0.00,VWS V14.01,2013-06-06 06:56:00,
2013-06-06 02:57:00,58.5,38.9,29.97,SE,138,0.0,0.0,48,0.00,,---,0.00,VWS V14.01,2013-06-06 06:57:00,
2013-06-06 02:58:00,58.5,38.9,29.97,SE,138,0.0,0.0,48,0.00,,---,0.00,VWS V14.01,2013-06-06 06:58:00,
2013-06-06 03:01:00,58.3,38.7,29.97,SE,138,0.0,0.0,48,0.00,,---,0.00,VWS V14.01,2013-06-06 07:01:00,
2013-06-06 03:02:00,58.3,38.7,29.97,SE,138,0.0,0.0,48,0.00,,---,0.00,VWS V14.01,2013-06-06 07:02:00,
2013-06-06 03:03:00,58.3,38.7,29.97,SE,138,0.0,0.0,48,0.00,,---,0.00,VWS V14.01,2013-06-06 07:03:00,
2013-06-06 03:06:00,58.1,38.5,29.97,SE,138,0.0,0.0,48,0.00,,---,0.00,VWS V14.01,2013-06-06 07:06:00,
2013-06-06 03:07:00,58.3,38.7,29.97,SE,138,0.0,0.0,48,0.00,,---,0.00,VWS V14.01,2013-06-06 07:07:00,
2013-06-06 03:08:00,58.3,38.7,29.97,SE,138,0.0,0.0,48,0.00,,---,0.00,VWS V14.01,2013-06-06 07:08:00,
2013-06-06 03:12:00,58.3,38.7,29.97,SE,138,0.0,0.0,48,0.00,,---,0.00,VWS V14.01,2013-06-06 07:12:00,
2013-06-06 03:13:00,58.3,38.7,29.97,SE,138,0.0,0.0,48,0.00,,---,0.00,VWS V14.01,2013-06-06 07:13:00,
2013-06-06 03:17:00,58.1,38.5,29.97,SE,138,0.0,0.0,48,0.00,,---,0.00,VWS V14.01,2013-06-06 07:17:00,
2013-06-06 03:18:00,58.1,38.5,29.97,SE,138,0.0,0.0,48,0.00,,---,0.00,VWS V14.01,2013-06-06 07:18:00,
2013-06-06 03:22:00,57.9,37.8,29.97,SE,138,0.0,0.0,47,0.00,,---,0.00,VWS V14.01,2013-06-06 07:22:00,
2013-06-06 03:23:00,57.7,37.7,29.97,SE,138,0.0,0.0,47,0.00,,---,0.00,VWS V14.01,2013-06-06 07:23:00,
2013-06-06 03:24:00,57.7,37.7,29.97,SE,138,0.0,0.0,47,0.00,,---,0.00,VWS V14.01,2013-06-06 07:24:00,
2013-06-06 03:27:00,57.6,37.5,29.97,SE,138,0.0,0.0,47,0.00,,---,0.00,VWS V14.01,2013-06-06 07:27:00,
2013-06-06 03:28:00,57.6,37.5,29.97,SE,138,0.0,0.0,47,0.00,,---,0.00,VWS V14.01,2013-06-06 07:28:00,
2013-06-06 03:29:00,57.6,38.0,29.97,SE,138,0.0,0.0,48,0.00,,---,0.00,VWS V14.01,2013-06-06 07:29:00,
2013-06-06 03:32:00,57.6,38.0,29.97,SE,138,0.0,0.0,48,0.00,,---,0.00,VWS V14.01,2013-06-06 07:32:00,
2013-06-06 03:33:00,57.6,38.0,29.97,SE,138,0.0,0.0,48,0.00,,---,0.00,VWS V14.01,2013-06-06 07:33:00,
2013-06-06 03:34:00,57.6,38.0,29.97,SE,138,0.0,0.0,48,0.00,,---,0.00,VWS V14.01,2013-06-06 07:34:00,
2013-06-06 03:37:00,57.7,38.2,29.97,SE,138,0.0,0.0,48,0.00,,---,0.00,VWS V14.01,2013-06-06 07:37:00,
2013-06-06 03:38:00,57.7,38.2,29.97,SE,138,0.0,0.0,48,0.00,,---,0.00,VWS V14.01,2013-06-06 07:38:00,
2013-06-06 03:39:00,57.7,38.2,29.97,SE,138,0.0,0.0,48,0.00,,---,0.00,VWS V14.01,2013-06-06 07:39:00,
2013-06-06 03:42:00,57.7,38.2,29.97,SE,138,0.0,0.0,48,0.00,,---,0.00,VWS V14.01,2013-06-06 07:42:00,
2013-06-06 03:44:00,57.6,38.0,29.97,SE,138,0.0,0.0,48,0.00,,---,0.00,VWS V14.01,2013-06-06 07:44:00,
2013-06-06 03:47:00,57.6,37.5,29.97,SE,138,0.0,0.0,47,0.00,,---,0.00,VWS V14.01,2013-06-06 07:47:00,
2013-06-06 03:48:00,57.6,37.5,29.97,SE,138,0.0,0.0,47,0.00,,---,0.00,VWS V14.01,2013-06-06 07:48:00,
2013-06-06 03:49:00,57.6,37.5,29.97,SE,138,0.0,0.0,47,0.00,,---,0.00,VWS V14.01,2013-06-06 07:49:00,
2013-06-06 03:53:00,57.6,37.5,29.97,SE,138,0.0,0.0,47,0.00,,---,0.00,VWS V14.01,2013-06-06 07:53:00,
2013-06-06 03:54:00,57.6,37.5,29.97,SE,138,0.0,0.0,47,0.00,,---,0.00,VWS V14.01,2013-06-06 07:54:00,
2013-06-06 03:58:00,57.6,37.5,29.97,SE,138,0.0,0.0,47,0.00,,---,0.00,VWS V14.01,2013-06-06 07:58:00,
2013-06-06 03:59:00,57.6,37.5,29.97,SE,138,0.0,0.0,47,0.00,,---,0.00,VWS V14.01,2013-06-06 07:59:00,
2013-06-06 04:00:00,57.6,37.5,29.97,SE,138,0.0,0.0,47,0.00,,---,0.00,VWS V14.01,2013-06-06 08:00:00,
2013-06-06 04:03:00,57.6,37.5,29.97,SE,138,0.0,0.0,47,0.00,,---,0.00,VWS V14.01,2013-06-06 08:03:00,
2013-06-06 04:04:00,57.6,37.5,29.97,SE,138,0.0,0.0,47,0.00,,---,0.00,VWS V14.01,2013-06-06 08:04:00,
2013-06-06 04:05:00,57.4,37.3,29.97,SE,138,0.0,0.0,47,0.00,,---,0.00,VWS V14.01,2013-06-06 08:05:00,
2013-06-06 04:08:00,57.4,37.3,29.97,SE,138,0.0,0.0,47,0.00,,---,0.00,VWS V14.01,2013-06-06 08:08:00,
2013-06-06 04:09:00,57.4,37.3,29.97,SE,138,0.0,0.0,47,0.00,,---,0.00,VWS V14.01,2013-06-06 08:09:00,
2013-06-06 04:10:00,57.4,37.3,29.97,SE,138,0.0,0.0,47,0.00,,---,0.00,VWS V14.01,2013-06-06 08:10:00,
2013-06-06 04:13:00,57.2,37.2,29.97,SE,138,0.0,0.0,47,0.00,,---,0.00,VWS V14.01,2013-06-06 08:13:00,
2013-06-06 04:14:00,57.2,37.2,29.97,SE,138,0.0,0.0,47,0.00,,---,0.00,VWS V14.01,2013-06-06 08:14:00,
2013-06-06 04:15:00,57.2,37.2,29.97,SE,138,0.0,0.0,47,0.00,,---,0.00,VWS V14.01,2013-06-06 08:15:00,
2013-06-06 04:18:00,57.2,37.2,29.97,SE,138,0.0,0.0,47,0.00,,---,0.00,VWS V14.01,2013-06-06 08:18:00,
2013-06-06 04:19:00,57.2,37.2,29.97,SE,138,0.0,0.0,47,0.00,,---,0.00,VWS V14.01,2013-06-06 08:19:00,
2013-06-06 04:20:00,57.2,37.2,29.97,SE,138,0.0,0.0,47,0.00,,---,0.00,VWS V14.01,2013-06-06 08:20:00,
2013-06-06 04:23:00,57.0,37.0,29.97,SE,138,0.0,0.0,47,0.00,,---,0.00,VWS V14.01,2013-06-06 08:23:00,
2013-06-06 04:24:00,57.0,37.0,29.97,SE,138,0.0,0.0,47,0.00,,---,0.00,VWS V14.01,2013-06-06 08:24:00,
2013-06-06 04:25:00,57.0,37.0,29.97,SE,138,0.0,0.0,47,0.00,,---,0.00,VWS V14.01,2013-06-06 08:25:00,
2013-06-06 04:29:00,56.8,36.8,29.97,SE,138,0.0,0.0,47,0.00,,---,0.00,VWS V14.01,2013-06-06 08:29:00,
2013-06-06 04:30:00,56.8,36.8,29.97,SE,138,0.0,0.0,47,0.00,,---,0.00,VWS V14.01,2013-06-06 08:30:00,
2013-06-06 04:31:00,56.8,36.8,29.97,SE,138,0.0,0.0,47,0.00,,---,0.00,VWS V14.01,2013-06-06 08:31:00,
2013-06-06 04:34:00,56.8,36.8,29.97,SE,138,0.0,0.0,47,0.00,,---,0.00,VWS V14.01,2013-06-06 08:34:00,
2013-06-06 04:35:00,56.8,36.8,29.97,SE,138,0.0,0.0,47,0.00,,---,0.00,VWS V14.01,2013-06-06 08:35:00,
2013-06-06 04:37:00,56.7,36.7,29.97,SE,138,0.0,0.0,47,0.00,,---,0.00,VWS V14.01,2013-06-06 08:37:00,
2013-06-06 04:39:00,56.7,36.7,29.97,SE,138,0.0,0.0,47,0.00,,---,0.00,VWS V14.01,2013-06-06 08:39:00,
2013-06-06 04:40:00,56.7,36.7,29.97,SE,138,0.0,0.0,47,0.00,,---,0.00,VWS V14.01,2013-06-06 08:40:00,
2013-06-06 04:41:00,56.7,36.7,29.97,SE,138,0.0,0.0,47,0.00,,---,0.00,VWS V14.01,2013-06-06 08:41:00,
2013-06-06 04:42:00,56.7,36.7,29.97,SE,138,0.0,0.0,47,0.00,,---,0.00,VWS V14.01,2013-06-06 08:42:00,
2013-06-06 04:44:00,56.7,36.7,29.97,SE,138,0.0,0.0,47,0.00,,---,0.00,VWS V14.01,2013-06-06 08:44:00,
2013-06-06 04:45:00,56.5,36.5,29.97,SE,138,0.0,0.0,47,0.00,,---,0.00,VWS V14.01,2013-06-06 08:45:00,
2013-06-06 04:46:00,56.3,35.8,29.97,SE,138,0.0,0.0,46,0.00,,---,0.00,VWS V14.01,2013-06-06 08:46:00,
2013-06-06 04:47:00,56.3,35.8,29.97,SE,138,0.0,0.0,46,0.00,,---,0.00,VWS V14.01,2013-06-06 08:47:00,
2013-06-06 04:49:00,56.1,35.6,29.97,SE,138,0.0,0.0,46,0.00,,---,0.00,VWS V14.01,2013-06-06 08:49:00,
2013-06-06 04:50:00,56.1,36.2,29.97,SE,138,0.0,0.0,47,0.00,,---,0.00,VWS V14.01,2013-06-06 08:50:00,
2013-06-06 04:51:00,56.1,36.2,29.97,SE,138,0.0,0.0,47,0.00,,---,0.00,VWS V14.01,2013-06-06 08:51:00,
2013-06-06 04:52:00,56.1,36.2,29.97,SE,138,0.0,0.0,47,0.00,,---,0.00,VWS V14.01,2013-06-06 08:52:00,
2013-06-06 04:54:00,56.1,36.2,29.97,SE,138,0.0,0.0,47,0.00,,---,0.00,VWS V14.01,2013-06-06 08:54:00,
2013-06-06 04:55:00,56.1,36.2,29.97,SE,138,0.0,0.0,47,0.00,,---,0.00,VWS V14.01,2013-06-06 08:55:00,
2013-06-06 04:56:00,56.3,36.3,29.97,SE,138,0.0,0.0,47,0.00,,---,0.00,VWS V14.01,2013-06-06 08:56:00,
2013-06-06 04:57:00,56.3,36.3,29.97,SE,138,0.0,0.0,47,0.00,,---,0.00,VWS V14.01,2013-06-06 08:57:00,
2013-06-06 04:59:00,56.3,36.3,29.97,SE,138,0.0,0.0,47,0.00,,---,0.00,VWS V14.01,2013-06-06 08:59:00,
2013-06-06 05:00:00,56.3,36.3,29.97,SE,138,0.0,0.0,47,0.00,,---,0.00,VWS V14.01,2013-06-06 09:00:00,
2013-06-06 05:01:00,56.3,36.3,29.97,SE,138,0.0,0.0,47,0.00,,---,0.00,VWS V14.01,2013-06-06 09:01:00,
2013-06-06 05:02:00,56.3,36.3,29.97,SE,138,0.0,0.0,47,0.00,,---,0.00,VWS V14.01,2013-06-06 09:02:00,
2013-06-06 05:04:00,56.1,36.2,29.97,SE,138,0.0,0.0,47,0.00,,---,0.00,VWS V14.01,2013-06-06 09:04:00,
2013-06-06 05:05:00,55.9,36.0,29.97,SE,138,0.0,0.0,47,0.00,,---,0.00,VWS V14.01,2013-06-06 09:05:00,
2013-06-06 05:06:00,55.9,36.0,29.97,SE,138,0.0,0.0,47,0.00,,---,0.00,VWS V14.01,2013-06-06 09:06:00,
2013-06-06 05:07:00,55.9,36.0,29.97,SE,138,0.0,0.0,47,0.00,,---,0.00,VWS V14.01,2013-06-06 09:07:00,
2013-06-06 05:08:00,55.9,36.0,29.97,SE,138,0.0,0.0,47,0.00,,---,0.00,VWS V14.01,2013-06-06 09:08:00,
2013-06-06 05:10:00,55.9,36.0,29.97,SE,138,0.0,0.0,47,0.00,,---,0.00,VWS V14.01,2013-06-06 09:10:00,
2013-06-06 05:11:00,55.9,36.0,29.97,SE,138,0.0,0.0,47,0.00,,---,0.00,VWS V14.01,2013-06-06 09:11:00,
2013-06-06 05:12:00,55.9,36.0,29.97,SE,138,0.0,0.0,47,0.00,,---,0.00,VWS V14.01,2013-06-06 09:12:00,
2013-06-06 05:13:00,55.9,36.0,29.97,SE,138,0.0,0.0,47,0.00,,---,0.00,VWS V14.01,2013-06-06 09:13:00,
2013-06-06 05:15:00,55.9,36.5,29.97,SE,138,0.0,0.0,48,0.00,,---,0.00,VWS V14.01,2013-06-06 09:15:00,
2013-06-06 05:17:00,55.9,36.5,29.97,SE,138,0.0,0.0,48,0.00,,---,0.00,VWS V14.01,2013-06-06 09:17:00,
2013-06-06 05:18:00,55.9,36.5,29.97,SE,138,0.0,0.0,48,0.00,,---,0.00,VWS V14.01,2013-06-06 09:18:00,
2013-06-06 05:20:00,55.9,36.5,29.97,SE,138,0.0,0.0,48,0.00,,---,0.00,VWS V14.01,2013-06-06 09:20:00,
2013-06-06 05:22:00,55.9,36.5,29.97,SE,138,0.0,0.0,48,0.00,,---,0.00,VWS V14.01,2013-06-06 09:22:00,
2013-06-06 05:23:00,55.9,36.5,29.97,SE,138,0.0,0.0,48,0.00,,---,0.00,VWS V14.01,2013-06-06 09:23:00,
2013-06-06 05:25:00,55.9,36.5,29.97,SE,138,0.0,0.0,48,0.00,,---,0.00,VWS V14.01,2013-06-06 09:25:00,
2013-06-06 05:27:00,55.9,36.5,29.97,SE,138,0.0,0.0,48,0.00,,---,0.00,VWS V14.01,2013-06-06 09:27:00,
2013-06-06 05:28:00,55.9,36.5,29.97,SE,138,0.0,0.0,48,0.00,,---,0.00,VWS V14.01,2013-06-06 09:28:00,
2013-06-06 05:30:00,55.9,36.5,29.97,SE,138,0.0,0.0,48,0.00,,---,0.00,VWS V14.01,2013-06-06 09:30:00,
2013-06-06 05:32:00,55.9,36.5,29.97,SE,138,0.0,0.0,48,0.00,,---,0.00,VWS V14.01,2013-06-06 09:32:00,
2013-06-06 05:33:00,55.9,36.5,29.97,SE,138,0.0,0.0,48,0.00,,---,0.00,VWS V14.01,2013-06-06 09:33:00,
2013-06-06 05:36:00,55.9,36.5,29.97,SE,138,0.0,0.0,48,0.00,,---,0.00,VWS V14.01,2013-06-06 09:36:00,
2013-06-06 05:37:00,55.9,36.5,29.97,SE,138,0.0,0.0,48,0.00,,---,0.00,VWS V14.01,2013-06-06 09:37:00,
2013-06-06 05:38:00,55.9,36.5,29.97,SE,138,0.0,0.0,48,0.00,,---,0.00,VWS V14.01,2013-06-06 09:38:00,
2013-06-06 05:41:00,55.9,36.5,29.97,SE,138,0.0,0.0,48,0.00,,---,0.00,VWS V14.01,2013-06-06 09:41:00,
2013-06-06 05:42:00,55.9,36.5,29.97,SE,138,0.0,0.0,48,0.00,,---,0.00,VWS V14.01,2013-06-06 09:42:00,
2013-06-06 05:43:00,55.9,36.5,29.97,SE,138,0.0,0.0,48,0.00,,---,0.00,VWS V14.01,2013-06-06 09:43:00,
2013-06-06 05:46:00,55.9,36.5,29.97,SE,138,0.0,0.0,48,0.00,,---,0.00,VWS V14.01,2013-06-06 09:46:00,
2013-06-06 05:47:00,55.9,36.5,29.97,SE,138,0.0,0.0,48,0.00,,---,0.00,VWS V14.01,2013-06-06 09:47:00,
2013-06-06 05:48:00,55.9,36.5,29.97,SE,138,0.0,0.0,48,0.00,,---,0.00,VWS V14.01,2013-06-06 09:48:00,
2013-06-06 05:51:00,55.9,36.5,29.97,SE,138,0.0,0.0,48,0.00,,---,0.00,VWS V14.01,2013-06-06 09:51:00,
2013-06-06 05:52:00,55.9,36.5,29.97,SE,138,0.0,0.0,48,0.00,,---,0.00,VWS V14.01,2013-06-06 09:52:00,
2013-06-06 05:53:00,55.9,36.5,29.97,SE,138,0.0,0.0,48,0.00,,---,0.00,VWS V14.01,2013-06-06 09:53:00,
2013-06-06 05:56:00,55.9,36.5,29.97,SE,138,0.0,0.0,48,0.00,,---,0.00,VWS V14.01,2013-06-06 09:56:00,
2013-06-06 05:57:00,55.9,36.5,29.97,SE,138,0.0,0.0,48,0.00,,---,0.00,VWS V14.01,2013-06-06 09:57:00,
2013-06-06 05:58:00,55.9,36.5,29.97,SE,138,0.0,0.0,48,0.00,,---,0.00,VWS V14.01,2013-06-06 09:58:00,
2013-06-06 06:01:00,56.1,37.2,29.97,SE,138,0.0,0.0,49,0.00,,---,0.00,VWS V14.01,2013-06-06 10:01:00,
2013-06-06 06:02:00,56.1,37.2,29.97,SE,138,0.0,0.0,49,0.00,,---,0.00,VWS V14.01,2013-06-06 10:02:00,
2013-06-06 06:03:00,56.1,37.2,29.97,SE,138,0.0,0.0,49,0.00,,---,0.00,VWS V14.01,2013-06-06 10:03:00,
2013-06-06 06:07:00,56.1,37.2,29.97,SE,138,0.0,0.0,49,0.00,,---,0.00,VWS V14.01,2013-06-06 10:07:00,
2013-06-06 06:08:00,56.1,37.2,29.97,SE,138,0.0,0.0,49,0.00,,---,0.00,VWS V14.01,2013-06-06 10:08:00,
2013-06-06 06:12:00,56.1,37.2,29.97,SE,138,0.0,0.0,49,0.00,,---,0.00,VWS V14.01,2013-06-06 10:12:00,
2013-06-06 06:13:00,56.1,37.2,29.97,SE,138,0.0,0.0,49,0.00,,---,0.00,VWS V14.01,2013-06-06 10:13:00,
2013-06-06 06:14:00,56.1,37.2,29.97,SE,138,0.0,0.0,49,0.00,,---,0.00,VWS V14.01,2013-06-06 10:14:00,
2013-06-06 06:17:00,56.1,37.2,29.97,SE,138,0.0,0.0,49,0.00,,---,0.00,VWS V14.01,2013-06-06 10:17:00,
2013-06-06 06:18:00,56.1,37.2,29.97,SE,138,0.0,0.0,49,0.00,,---,0.00,VWS V14.01,2013-06-06 10:18:00,
2013-06-06 06:19:00,56.1,37.2,29.97,SE,138,0.0,0.0,49,0.00,,---,0.00,VWS V14.01,2013-06-06 10:19:00,
2013-06-06 06:22:00,56.1,37.2,29.97,SE,138,0.0,0.0,49,0.00,,---,0.00,VWS V14.01,2013-06-06 10:22:00,
2013-06-06 06:23:00,56.1,37.2,29.97,SE,138,0.0,0.0,49,0.00,,---,0.00,VWS V14.01,2013-06-06 10:23:00,
2013-06-06 06:24:00,56.8,38.4,29.97,SE,138,0.0,0.0,50,0.00,,---,0.00,VWS V14.01,2013-06-06 10:24:00,
2013-06-06 06:27:00,56.8,38.4,29.97,SE,138,0.0,0.0,50,0.00,,---,0.00,VWS V14.01,2013-06-06 10:27:00,
2013-06-06 06:28:00,56.8,38.4,29.97,SE,138,0.0,0.0,50,0.00,,---,0.00,VWS V14.01,2013-06-06 10:28:00,
2013-06-06 06:29:00,56.8,38.4,29.97,SE,138,0.0,0.0,50,0.00,,---,0.00,VWS V14.01,2013-06-06 10:29:00,
2013-06-06 06:32:00,56.8,38.4,29.97,SE,138,0.0,0.0,50,0.00,,---,0.00,VWS V14.01,2013-06-06 10:32:00,
2013-06-06 06:33:00,56.8,38.4,29.97,SE,138,0.0,0.0,50,0.00,,---,0.00,VWS V14.01,2013-06-06 10:33:00,
2013-06-06 06:34:00,56.8,38.4,29.97,SE,138,0.0,0.0,50,0.00,,---,0.00,VWS V14.01,2013-06-06 10:34:00,
2013-06-06 06:37:00,56.8,38.4,29.97,SE,138,0.0,0.0,50,0.00,,---,0.00,VWS V14.01,2013-06-06 10:37:00,
2013-06-06 06:38:00,56.8,38.4,29.97,SE,138,0.0,0.0,50,0.00,,---,0.00,VWS V14.01,2013-06-06 10:38:00,
2013-06-06 06:39:00,56.8,38.4,29.97,SE,138,0.0,0.0,50,0.00,,---,0.00,VWS V14.01,2013-06-06 10:39:00,
2013-06-06 06:42:00,56.8,38.4,29.97,SE,138,0.0,0.0,50,0.00,,---,0.00,VWS V14.01,2013-06-06 10:42:00,
2013-06-06 06:43:00,56.8,38.4,29.97,SE,138,0.0,0.0,50,0.00,,---,0.00,VWS V14.01,2013-06-06 10:43:00,
2013-06-06 06:44:00,56.8,38.4,29.97,SE,138,0.0,0.0,50,0.00,,---,0.00,VWS V14.01,2013-06-06 10:44:00,
2013-06-06 06:47:00,56.8,38.4,29.97,SE,138,0.0,0.0,50,0.00,,---,0.00,VWS V14.01,2013-06-06 10:47:00,
2013-06-06 06:48:00,56.8,38.4,29.97,SE,138,0.0,0.0,50,0.00,,---,0.00,VWS V14.01,2013-06-06 10:48:00,
2013-06-06 06:49:00,56.8,38.4,29.97,SE,138,0.0,0.0,50,0.00,,---,0.00,VWS V14.01,2013-06-06 10:49:00,
2013-06-06 06:52:00,57.7,39.8,29.97,SE,138,0.0,0.0,51,0.00,,---,0.00,VWS V14.01,2013-06-06 10:52:00,
2013-06-06 06:53:00,57.9,40.4,29.97,SE,138,0.0,0.0,52,0.00,,---,0.00,VWS V14.01,2013-06-06 10:53:00,
2013-06-06 06:54:00,57.9,40.4,29.97,SE,138,0.0,0.0,52,0.00,,---,0.00,VWS V14.01,2013-06-06 10:54:00,
2013-06-06 06:58:00,58.3,41.2,29.97,SE,138,0.0,0.0,53,0.00,,---,0.00,VWS V14.01,2013-06-06 10:58:00,
2013-06-06 06:59:00,58.3,41.2,29.97,SE,138,0.0,0.0,53,0.00,,---,0.00,VWS V14.01,2013-06-06 10:59:00,
2013-06-06 07:00:00,58.3,41.2,29.97,ESE,120,0.0,0.0,53,0.00,,---,0.00,VWS V14.01,2013-06-06 11:00:00,
2013-06-06 07:03:00,58.5,41.9,29.97,ESE,120,0.0,0.0,54,0.00,,---,0.00,VWS V14.01,2013-06-06 11:03:00,
2013-06-06 07:04:00,58.6,42.5,29.97,ESE,120,0.0,0.0,55,0.00,,---,0.00,VWS V14.01,2013-06-06 11:04:00,
2013-06-06 07:05:00,58.6,42.5,29.97,ESE,120,0.0,0.0,55,0.00,,---,0.00,VWS V14.01,2013-06-06 11:05:00,
2013-06-06 07:08:00,58.8,42.7,29.97,ESE,120,0.0,0.0,55,0.00,,---,0.00,VWS V14.01,2013-06-06 11:08:00,
2013-06-06 07:09:00,58.8,42.7,29.97,ESE,120,0.0,0.0,55,0.00,,---,0.00,VWS V14.01,2013-06-06 11:09:00,
2013-06-06 07:10:00,58.8,42.7,29.97,ESE,120,0.0,0.0,55,0.00,,---,0.00,VWS V14.01,2013-06-06 11:10:00,
2013-06-06 07:13:00,59.0,43.3,29.97,ESE,120,0.0,0.0,56,0.00,,---,0.00,VWS V14.01,2013-06-06 11:13:00,
2013-06-06 07:14:00,59.2,44.4,29.97,ESE,120,0.0,0.0,58,0.00,,---,0.00,VWS V14.01,2013-06-06 11:14:00,
2013-06-06 07:15:00,59.2,44.4,29.97,ESE,120,0.0,0.0,58,0.00,,---,0.00,VWS V14.01,2013-06-06 11:15:00,
2013-06-06 07:18:00,59.2,44.4,29.97,ESE,120,0.0,0.0,58,0.00,,---,0.00,VWS V14.01,2013-06-06 11:18:00,
2013-06-06 07:19:00,59.2,44.4,29.97,ESE,120,0.0,0.0,58,0.00,,---,0.00,VWS V14.01,2013-06-06 11:19:00,
2013-06-06 07:20:00,59.2,44.4,29.97,ESE,120,0.0,0.0,58,0.00,,---,0.00,VWS V14.01,2013-06-06 11:20:00,
2013-06-06 07:23:00,59.2,44.4,29.97,ESE,120,0.0,0.0,58,0.00,,---,0.00,VWS V14.01,2013-06-06 11:23:00,
2013-06-06 07:24:00,59.2,44.4,29.97,ESE,120,0.0,0.0,58,0.00,,---,0.00,VWS V14.01,2013-06-06 11:24:00,
2013-06-06 07:25:00,59.2,44.4,29.97,ESE,120,0.0,0.0,58,0.00,,---,0.00,VWS V14.01,2013-06-06 11:25:00,
2013-06-06 07:28:00,60.1,47.9,29.97,East,83,0.0,0.0,64,0.00,,---,0.00,VWS V14.01,2013-06-06 11:28:00,
2013-06-06 07:29:00,60.1,48.3,29.97,East,83,0.0,0.0,65,0.00,,---,0.00,VWS V14.01,2013-06-06 11:29:00,
2013-06-06 07:30:00,60.1,48.3,29.97,East,83,0.0,0.0,65,0.00,,---,0.00,VWS V14.01,2013-06-06 11:30:00,
2013-06-06 07:31:00,60.1,48.3,29.97,East,83,0.0,0.0,65,0.00,,---,0.00,VWS V14.01,2013-06-06 11:31:00,
2013-06-06 07:33:00,60.3,48.5,29.97,East,83,0.0,0.0,65,0.00,,---,0.00,VWS V14.01,2013-06-06 11:33:00,
2013-06-06 07:34:00,60.4,48.6,29.97,East,83,0.0,0.0,65,0.00,,---,0.00,VWS V14.01,2013-06-06 11:34:00,
2013-06-06 07:35:00,60.4,49.0,29.97,East,83,0.0,0.0,66,0.00,,---,0.00,VWS V14.01,2013-06-06 11:35:00,
2013-06-06 07:36:00,60.4,49.0,29.94,East,83,0.0,0.0,66,0.00,,---,0.00,VWS V14.01,2013-06-06 11:36:00,
2013-06-06 07:38:00,60.6,49.2,29.94,East,83,0.0,0.0,66,0.00,,---,0.00,VWS V14.01,2013-06-06 11:38:00,
2013-06-06 07:39:00,60.6,49.6,29.94,East,83,0.0,0.0,67,0.00,,---,0.00,VWS V14.01,2013-06-06 11:39:00,
2013-06-06 07:40:00,60.8,50.2,29.94,East,83,0.0,0.0,68,0.00,,---,0.00,VWS V14.01,2013-06-06 11:40:00,
2013-06-06 07:41:00,60.8,50.6,29.94,East,83,0.0,0.0,69,0.00,,---,0.00,VWS V14.01,2013-06-06 11:41:00,
2013-06-06 07:43:00,61.0,50.8,29.94,East,83,0.0,0.0,69,0.00,,---,0.00,VWS V14.01,2013-06-06 11:43:00,
2013-06-06 07:44:00,61.0,50.8,29.94,East,83,0.0,0.0,69,0.00,,---,0.00,VWS V14.01,2013-06-06 11:44:00,
2013-06-06 07:45:00,61.0,50.8,29.94,East,83,0.0,0.0,69,0.00,,---,0.00,VWS V14.01,2013-06-06 11:45:00,
2013-06-06 07:47:00,61.0,51.1,29.94,SSE,158,2.2,2.2,70,0.00,,---,0.00,VWS V14.01,2013-06-06 11:47:00,
2013-06-06 07:48:00,61.2,51.7,29.94,SSE,158,0.0,0.0,71,0.00,,---,0.00,VWS V14.01,2013-06-06 11:48:00,
2013-06-06 07:49:00,61.3,52.2,29.94,ESE,119,0.0,0.0,72,0.00,,---,0.00,VWS V14.01,2013-06-06 11:49:00,
2013-06-06 07:50:00,61.3,52.6,29.94,ESE,109,2.2,2.2,73,0.00,,---,0.00,VWS V14.01,2013-06-06 11:50:00,
2013-06-06 07:51:00,61.3,52.6,29.94,ESE,109,0.0,0.0,73,0.00,,---,0.00,VWS V14.01,2013-06-06 11:51:00,
2013-06-06 07:52:00,61.3,52.6,29.94,ESE,109,0.0,0.0,73,0.00,,---,0.00,VWS V14.01,2013-06-06 11:52:00,
2013-06-06 07:54:00,61.7,53.3,29.94,ESE,105,0.0,0.0,74,0.00,,---,0.00,VWS V14.01,2013-06-06 11:54:00,
2013-06-06 07:56:00,61.9,53.5,29.94,ESE,105,0.0,0.0,74,0.00,,---,0.00,VWS V14.01,2013-06-06 11:56:00,
2013-06-06 07:57:00,61.9,53.9,29.94,NE,48,0.0,0.0,75,0.00,,---,0.00,VWS V14.01,2013-06-06 11:57:00,
2013-06-06 07:59:00,62.1,54.0,29.94,NE,48,0.0,0.0,75,0.00,,---,0.00,VWS V14.01,2013-06-06 11:59:00,
2013-06-06 08:00:00,62.1,54.4,29.94,NE,48,0.0,0.0,76,0.00,,---,0.00,VWS V14.01,2013-06-06 12:00:00,
2013-06-06 08:01:00,62.1,54.4,29.94,NE,48,0.0,0.0,76,0.00,,---,0.00,VWS V14.01,2013-06-06 12:01:00,
2013-06-06 08:02:00,62.2,54.6,29.94,NE,48,0.0,0.0,76,0.00,,---,0.00,VWS V14.01,2013-06-06 12:02:00,
2013-06-06 08:04:00,62.2,54.6,29.94,NE,48,0.0,0.0,76,0.00,,---,0.00,VWS V14.01,2013-06-06 12:04:00,
2013-06-06 08:05:00,62.2,54.6,29.94,NE,48,0.0,0.0,76,0.00,,---,0.00,VWS V14.01,2013-06-06 12:05:00,
2013-06-06 08:06:00,62.2,54.6,29.94,NE,48,0.0,0.0,76,0.00,,---,0.00,VWS V14.01,2013-06-06 12:06:00,
2013-06-06 08:07:00,62.4,54.8,29.94,ENE,77,0.0,0.0,76,0.00,,---,0.00,VWS V14.01,2013-06-06 12:07:00,
2013-06-06 08:09:00,62.4,54.8,29.94,ESE,114,0.0,0.0,76,0.00,,---,0.00,VWS V14.01,2013-06-06 12:09:00,
2013-06-06 08:10:00,62.6,54.6,29.94,ESE,114,0.0,0.0,75,0.00,,---,0.00,VWS V14.01,2013-06-06 12:10:00,
2013-06-06 08:12:00,62.6,54.6,29.94,ESE,114,0.0,0.0,75,0.00,,---,0.00,VWS V14.01,2013-06-06 12:12:00,
2013-06-06 08:13:00,62.6,54.6,29.94,ESE,114,0.0,0.0,75,0.00,,---,0.00,VWS V14.01,2013-06-06 12:13:00,
2013-06-06 08:14:00,62.8,55.1,29.94,East,100,0.0,0.0,76,0.00,,---,0.00,VWS V14.01,2013-06-06 12:14:00,
2013-06-06 08:15:00,62.8,55.1,29.94,ENE,59,0.0,2.2,76,0.00,,---,0.00,VWS V14.01,2013-06-06 12:15:00,
2013-06-06 08:17:00,63.0,55.3,29.94,ENE,59,0.0,0.0,76,0.00,,---,0.00,VWS V14.01,2013-06-06 12:17:00,
2013-06-06 08:18:00,63.1,55.5,29.94,ENE,59,0.0,0.0,76,0.00,,---,0.00,VWS V14.01,2013-06-06 12:18:00,
2013-06-06 08:19:00,63.1,55.5,29.94,ESE,105,2.2,3.6,76,0.00,,---,0.00,VWS V14.01,2013-06-06 12:19:00,
2013-06-06 08:20:00,63.1,55.5,29.94,ENE,77,0.0,0.0,76,0.00,,---,0.00,VWS V14.01,2013-06-06 12:20:00,
2013-06-06 08:22:00,63.3,55.6,29.94,ENE,77,0.0,0.0,76,0.00,,---,0.00,VWS V14.01,2013-06-06 12:22:00,
2013-06-06 08:23:00,63.5,55.8,29.94,ENE,77,0.0,0.0,76,0.00,,---,0.00,VWS V14.01,2013-06-06 12:23:00,
2013-06-06 08:24:00,63.5,55.8,29.94,East,88,3.6,3.6,76,0.00,,---,0.00,VWS V14.01,2013-06-06 12:24:00,
2013-06-06 08:25:00,63.7,56.0,29.94,East,90,0.0,0.0,76,0.00,,---,0.00,VWS V14.01,2013-06-06 12:25:00,
2013-06-06 08:27:00,63.9,56.2,29.94,ESE,112,2.2,3.1,76,0.00,,---,0.00,VWS V14.01,2013-06-06 12:27:00,
2013-06-06 08:28:00,63.9,56.2,29.94,East,89,3.1,3.1,76,0.00,,---,0.00,VWS V14.01,2013-06-06 12:28:00,
2013-06-06 08:29:00,64.0,56.3,29.94,East,96,0.0,2.7,76,0.00,,---,0.00,VWS V14.01,2013-06-06 12:29:00,
2013-06-06 08:30:00,64.2,56.5,29.94,East,96,0.0,0.0,76,0.00,,---,0.00,VWS V14.01,2013-06-06 12:30:00,
2013-06-06 08:33:00,64.4,55.6,29.94,NNW,338,2.7,3.6,73,0.00,,---,0.00,VWS V14.01,2013-06-06 12:33:00,
2013-06-06 08:34:00,64.4,55.6,29.94,South,176,2.2,2.2,73,0.00,,---,0.00,VWS V14.01,2013-06-06 12:34:00,
2013-06-06 08:36:00,64.6,54.6,29.97,NNE,22,2.2,3.1,70,0.00,,---,0.00,VWS V14.01,2013-06-06 12:36:00,
2013-06-06 08:38:00,64.8,54.4,29.97,NNE,22,0.0,0.0,69,0.00,,---,0.00,VWS V14.01,2013-06-06 12:38:00,
2013-06-06 08:39:00,64.9,54.1,29.97,NNE,22,0.0,0.0,68,0.00,,---,0.00,VWS V14.01,2013-06-06 12:39:00,
2013-06-06 08:41:00,65.1,52.2,29.97,NE,44,0.0,0.0,63,0.00,,---,0.00,VWS V14.01,2013-06-06 12:41:00,
2013-06-06 08:43:00,65.5,51.7,29.97,South,182,2.2,2.2,61,0.00,,---,0.00,VWS V14.01,2013-06-06 12:43:00,
2013-06-06 08:45:00,65.7,51.4,29.97,ESE,120,0.0,0.0,60,0.00,,---,0.00,VWS V14.01,2013-06-06 12:45:00,
2013-06-06 08:46:00,65.5,50.8,29.97,NE,38,2.7,4.0,59,0.00,,---,0.00,VWS V14.01,2013-06-06 12:46:00,
2013-06-06 08:48:00,65.1,39.6,29.97,North,1,2.2,2.7,39,0.00,,---,0.00,VWS V14.01,2013-06-06 12:48:00,
2013-06-06 08:50:00,65.5,42.4,29.97,NNW,346,2.7,3.1,43,0.00,,---,0.00,VWS V14.01,2013-06-06 12:50:00,
2013-06-06 08:51:00,65.7,42.6,29.97,North,1,0.0,3.6,43,0.00,,---,0.00,VWS V14.01,2013-06-06 12:51:00,
2013-06-06 08:53:00,65.7,41.3,29.97,NNE,19,4.0,4.0,41,0.00,,---,0.00,VWS V14.01,2013-06-06 12:53:00,
2013-06-06 08:54:00,65.7,38.0,29.97,NNE,19,2.7,4.0,36,0.00,,---,0.00,VWS V14.01,2013-06-06 12:54:00,
2013-06-06 08:55:00,65.7,38.7,29.97,ENE,78,0.0,0.0,37,0.00,,---,0.00,VWS V14.01,2013-06-06 12:55:00,
2013-06-06 08:56:00,65.8,39.5,29.97,NE,53,3.1,3.1,38,0.00,,---,0.00,VWS V14.01,2013-06-06 12:56:00,
2013-06-06 08:58:00,65.8,37.5,29.97,SE,129,0.0,0.0,35,0.00,,---,0.00,VWS V14.01,2013-06-06 12:58:00,
2013-06-06 08:59:00,65.8,37.5,29.97,SE,128,0.0,0.0,35,0.00,,---,0.00,VWS V14.01,2013-06-06 12:59:00,
2013-06-06 09:00:00,66.0,37.6,29.97,NNE,21,0.0,2.7,35,0.00,,---,0.00,VWS V14.01,2013-06-06 13:00:00,
2013-06-06 09:01:00,66.0,36.9,29.97,East,84,4.0,4.0,34,0.00,,---,0.00,VWS V14.01,2013-06-06 13:01:00,
2013-06-06 09:03:00,66.4,37.2,29.97,East,97,0.0,0.0,34,0.00,,---,0.00,VWS V14.01,2013-06-06 13:03:00,
2013-06-06 09:04:00,66.4,37.2,29.97,NE,41,2.2,2.7,34,0.00,,---,0.00,VWS V14.01,2013-06-06 13:04:00,
2013-06-06 09:05:00,66.6,37.3,29.97,ENE,69,3.6,3.6,34,0.00,,---,0.00,VWS V14.01,2013-06-06 13:05:00,
2013-06-06 09:06:00,66.7,37.5,29.94,ESE,108,3.1,3.1,34,0.00,,---,0.00,VWS V14.01,2013-06-06 13:06:00,
2013-06-06 09:07:00,66.7,37.5,29.94,ESE,115,2.2,3.6,34,0.00,,---,0.00,VWS V14.01,2013-06-06 13:07:00,
2013-06-06 09:09:00,66.9,36.9,29.94,NNE,30,0.0,0.0,33,0.00,,---,0.00,VWS V14.01,2013-06-06 13:09:00,
2013-06-06 09:10:00,67.3,38.0,29.94,SSE,152,2.7,3.1,34,0.00,,---,0.00,VWS V14.01,2013-06-06 13:10:00,
2013-06-06 09:11:00,67.3,37.2,29.94,SSE,152,0.0,0.0,33,0.00,,---,0.00,VWS V14.01,2013-06-06 13:11:00,
2013-06-06 09:12:00,67.3,37.2,29.94,SE,124,2.7,2.7,33,0.00,,---,0.00,VWS V14.01,2013-06-06 13:12:00,
2013-06-06 09:14:00,67.6,35.1,29.94,ENE,64,4.0,4.0,30,0.00,,---,0.00,VWS V14.01,2013-06-06 13:14:00,
2013-06-06 09:15:00,67.8,32.7,29.94,SSW,205,3.6,3.6,27,0.00,,---,0.00,VWS V14.01,2013-06-06 13:15:00,
2013-06-06 09:16:00,67.8,30.7,29.94,SSW,211,0.0,4.0,25,0.00,,---,0.00,VWS V14.01,2013-06-06 13:16:00,
2013-06-06 09:17:00,67.8,30.7,29.94,SSW,210,0.0,0.0,25,0.00,,---,0.00,VWS V14.01,2013-06-06 13:17:00,
2013-06-06 09:19:00,67.8,31.7,29.94,East,95,3.1,3.1,26,0.00,,---,0.00,VWS V14.01,2013-06-06 13:19:00,
2013-06-06 09:20:00,67.8,31.7,29.94,North,353,4.0,4.0,26,0.00,,---,0.00,VWS V14.01,2013-06-06 13:20:00,
2013-06-06 09:22:00,67.6,29.6,29.94,East,95,2.7,3.1,24,0.00,,---,0.00,VWS V14.01,2013-06-06 13:22:00,
2013-06-06 09:24:00,67.5,29.4,29.94,SSE,154,0.0,0.0,24,0.00,,---,0.00,VWS V14.01,2013-06-06 13:24:00,
2013-06-06 09:25:00,67.5,29.4,29.94,SSE,154,0.0,0.0,24,0.00,,---,0.00,VWS V14.01,2013-06-06 13:25:00,
2013-06-06 09:27:00,67.5,29.4,29.94,SE,142,0.0,0.0,24,0.00,,---,0.00,VWS V14.01,2013-06-06 13:27:00,
2013-06-06 09:29:00,67.5,29.4,29.94,East,81,4.9,4.9,24,0.00,,---,0.00,VWS V14.01,2013-06-06 13:29:00,
2013-06-06 09:31:00,67.8,29.7,29.94,ESE,117,3.6,4.0,24,0.00,,---,0.00,VWS V14.01,2013-06-06 13:31:00,
2013-06-06 09:32:00,67.8,28.7,29.94,East,96,2.7,3.1,23,0.00,,---,0.00,VWS V14.01,2013-06-06 13:32:00,
2013-06-06 09:33:00,68.0,28.9,29.94,ESE,114,4.0,4.0,23,0.00,,---,0.00,VWS V14.01,2013-06-06 13:33:00,
2013-06-06 09:34:00,68.0,27.8,29.94,SE,142,4.0,4.0,22,0.00,,---,0.00,VWS V14.01,2013-06-06 13:34:00,
2013-06-06 09:35:00,68.0,27.8,29.94,ENE,77,3.1,4.0,22,0.00,,---,0.00,VWS V14.01,2013-06-06 13:35:00,
2013-06-06 09:36:00,68.4,28.1,29.94,South,169,0.0,4.0,22,0.00,,---,0.00,VWS V14.01,2013-06-06 13:36:00,
2013-06-06 09:37:00,68.4,25.8,29.94,SSE,149,0.0,0.0,20,0.00,,---,0.00,VWS V14.01,2013-06-06 13:37:00,
2013-06-06 09:38:00,68.4,25.8,29.94,East,98,3.6,3.6,20,0.00,,---,0.00,VWS V14.01,2013-06-06 13:38:00,
2013-06-06 09:39:00,68.4,21.9,29.94,East,84,5.8,5.8,17,0.00,,---,0.00,VWS V14.01,2013-06-06 13:39:00,
2013-06-06 09:40:00,68.5,22.0,29.94,SSE,149,3.1,5.8,17,0.00,,---,0.00,VWS V14.01,2013-06-06 13:40:00,
2013-06-06 09:41:00,68.5,22.0,29.94,South,170,2.2,3.1,17,0.00,,---,0.00,VWS V14.01,2013-06-06 13:41:00,
2013-06-06 09:42:00,68.5,22.0,29.94,South,170,2.2,2.7,17,0.00,,---,0.00,VWS V14.01,2013-06-06 13:42:00,
2013-06-06 09:43:00,68.5,25.9,29.94,ESE,103,3.6,3.6,20,0.00,,---,0.00,VWS V14.01,2013-06-06 13:43:00,
2013-06-06 09:45:00,68.4,21.9,29.94,ENE,61,2.7,3.6,17,0.00,,---,0.00,VWS V14.01,2013-06-06 13:45:00,
2013-06-06 09:46:00,68.4,19.0,29.94,North,2,4.9,5.8,15,0.00,,---,0.00,VWS V14.01,2013-06-06 13:46:00,
2013-06-06 09:47:00,68.4,19.0,29.94,SSE,156,3.1,3.1,15,0.00,,---,0.00,VWS V14.01,2013-06-06 13:47:00,
2013-06-06 09:48:00,68.5,19.1,29.94,South,175,3.6,3.6,15,0.00,,---,0.00,VWS V14.01,2013-06-06 13:48:00,
2013-06-06 09:50:00,68.7,22.2,29.94,ENE,64,6.3,6.3,17,0.00,,---,0.00,VWS V14.01,2013-06-06 13:50:00,
2013-06-06 09:51:00,69.1,22.5,29.94,East,98,3.1,3.6,17,0.00,,---,0.00,VWS V14.01,2013-06-06 13:51:00,
2013-06-06 09:52:00,69.1,26.4,29.94,East,88,3.6,6.7,20,0.00,,---,0.00,VWS V14.01,2013-06-06 13:52:00,
2013-06-06 09:53:00,69.1,22.5,29.94,East,91,5.4,5.4,17,0.00,,---,0.00,VWS V14.01,2013-06-06 13:53:00,
2013-06-06 09:55:00,69.1,19.5,29.94,East,98,2.2,5.8,15,0.00,,---,0.00,VWS V14.01,2013-06-06 13:55:00,
2013-06-06 09:56:00,69.3,19.7,29.94,SSE,154,4.0,4.0,15,0.00,,---,0.00,VWS V14.01,2013-06-06 13:56:00,
2013-06-06 09:57:00,69.3,19.7,29.94,East,88,2.7,4.0,15,0.00,,---,0.00,VWS V14.01,2013-06-06 13:57:00,
2013-06-06 09:58:00,69.3,19.7,29.94,South,171,8.3,8.3,15,0.00,,---,0.00,VWS V14.01,2013-06-06 13:58:00,
2013-06-06 10:00:00,69.4,19.8,29.94,SE,130,2.2,2.2,15,0.00,,---,0.00,VWS V14.01,2013-06-06 14:00:00,
2013-06-06 10:01:00,69.4,19.8,29.94,East,81,0.0,3.1,15,0.00,,---,0.00,VWS V14.01,2013-06-06 14:01:00,
2013-06-06 10:02:00,69.6,22.9,29.94,East,81,0.0,0.0,17,0.00,,---,0.00,VWS V14.01,2013-06-06 14:02:00,
2013-06-06 10:03:00,69.8,23.1,29.94,North,7,3.1,3.1,17,0.00,,---,0.00,VWS V14.01,2013-06-06 14:03:00,
2013-06-06 10:05:00,70.0,18.6,29.94,NNE,18,3.1,4.0,14,0.00,,---,0.00,VWS V14.01,2013-06-06 14:05:00,
2013-06-06 10:07:00,70.2,18.8,29.94,SE,139,3.1,6.3,14,0.00,,---,0.00,VWS V14.01,2013-06-06 14:07:00,
2013-06-06 10:08:00,70.3,18.9,29.94,ENE,76,4.0,4.0,14,0.00,,---,0.00,VWS V14.01,2013-06-06 14:08:00,
2013-06-06 10:09:00,70.3,18.9,29.94,SSW,196,3.6,5.4,14,0.00,,---,0.00,VWS V14.01,2013-06-06 14:09:00,
2013-06-06 10:10:00,70.5,23.6,29.94,SE,137,2.7,2.7,17,0.00,,---,0.00,VWS V14.01,2013-06-06 14:10:00,
2013-06-06 10:12:00,70.3,18.9,29.94,SW,214,5.8,5.8,14,0.00,,---,0.00,VWS V14.01,2013-06-06 14:12:00,
2013-06-06 10:13:00,70.3,18.9,29.94,SE,144,6.3,6.3,14,0.00,,---,0.00,VWS V14.01,2013-06-06 14:13:00,
2013-06-06 10:14:00,70.3,18.9,29.94,SSE,159,3.6,6.3,14,0.00,,---,0.00,VWS V14.01,2013-06-06 14:14:00,
2013-06-06 10:15:00,70.2,18.8,29.94,ESE,110,4.9,4.9,14,0.00,,---,0.00,VWS V14.01,2013-06-06 14:15:00,
2013-06-06 10:17:00,70.0,15.1,29.94,SSW,209,4.5,4.5,12,0.00,,---,0.00,VWS V14.01,2013-06-06 14:17:00,
2013-06-06 10:18:00,70.0,15.1,29.94,ESE,113,3.6,3.6,12,0.00,,---,0.00,VWS V14.01,2013-06-06 14:18:00,
2013-06-06 10:19:00,69.8,14.9,29.94,SSE,168,3.1,3.6,12,0.00,,---,0.00,VWS V14.01,2013-06-06 14:19:00,
2013-06-06 10:20:00,69.8,18.5,29.94,SSW,208,3.6,3.6,14,0.00,,---,0.00,VWS V14.01,2013-06-06 14:20:00,
2013-06-06 10:21:00,69.8,18.5,29.94,SE,129,4.0,4.0,14,0.00,,---,0.00,VWS V14.01,2013-06-06 14:21:00,
2013-06-06 10:22:00,69.8,18.5,29.94,WSW,245,2.2,2.7,14,0.00,,---,0.00,VWS V14.01,2013-06-06 14:22:00,
2013-06-06 10:23:00,69.8,18.5,29.94,SSE,153,2.2,3.1,14,0.00,,---,0.00,VWS V14.01,2013-06-06 14:23:00,
2013-06-06 10:24:00,69.6,20.0,29.94,NNE,18,4.0,4.0,15,0.00,,---,0.00,VWS V14.01,2013-06-06 14:24:00,
2013-06-06 10:25:00,69.8,18.5,29.94,SE,129,2.7,4.0,14,0.00,,---,0.00,VWS V14.01,2013-06-06 14:25:00,
2013-06-06 10:26:00,69.6,20.0,29.94,ESE,107,2.2,3.6,15,0.00,,---,0.00,VWS V14.01,2013-06-06 14:26:00,
2013-06-06 10:27:00,69.8,23.1,29.94,ESE,116,2.2,4.0,17,0.00,,---,0.00,VWS V14.01,2013-06-06 14:27:00,
2013-06-06 10:28:00,69.8,23.1,29.94,ESE,116,0.0,2.2,17,0.00,,---,0.00,VWS V14.01,2013-06-06 14:28:00,
2013-06-06 10:29:00,70.0,23.2,29.94,South,177,3.1,3.1,17,0.00,,---,0.00,VWS V14.01,2013-06-06 14:29:00,
2013-06-06 10:30:00,70.2,18.8,29.94,South,190,4.0,7.6,14,0.00,,---,0.00,VWS V14.01,2013-06-06 14:30:00,
2013-06-06 10:32:00,70.3,18.9,29.94,ESE,104,2.7,6.3,14,0.00,,---,0.00,VWS V14.01,2013-06-06 14:32:00,
2013-06-06 10:33:00,70.5,19.1,29.94,SE,146,3.1,4.9,14,0.00,,---,0.00,VWS V14.01,2013-06-06 14:33:00,
2013-06-06 10:34:00,70.7,19.2,29.94,South,181,3.1,4.0,14,0.00,,---,0.00,VWS V14.01,2013-06-06 14:34:00,
2013-06-06 10:36:00,70.7,19.2,29.94,South,182,5.4,5.4,14,0.00,,---,0.00,VWS V14.01,2013-06-06 14:36:00,
2013-06-06 10:37:00,70.7,15.6,29.94,North,7,4.0,4.0,12,0.00,,---,0.00,VWS V14.01,2013-06-06 14:37:00,
2013-06-06 10:38:00,70.7,19.2,29.94,ESE,116,3.1,4.0,14,0.00,,---,0.00,VWS V14.01,2013-06-06 14:38:00,
2013-06-06 10:40:00,70.7,19.2,29.94,ESE,112,5.4,5.4,14,0.00,,---,0.00,VWS V14.01,2013-06-06 14:40:00,
2013-06-06 10:42:00,70.7,19.2,29.94,South,172,4.9,5.8,14,0.00,,---,0.00,VWS V14.01,2013-06-06 14:42:00,
2013-06-06 10:43:00,70.7,19.2,29.94,SSE,159,3.6,4.9,14,0.00,,---,0.00,VWS V14.01,2013-06-06 14:43:00,
2013-06-06 10:45:00,70.7,19.2,29.94,ESE,111,0.0,3.1,14,0.00,,---,0.00,VWS V14.01,2013-06-06 14:45:00,
2013-06-06 10:47:00,70.9,19.4,29.94,ENE,59,4.9,4.9,14,0.00,,---,0.00,VWS V14.01,2013-06-06 14:47:00,
2013-06-06 10:48:00,71.1,19.5,29.94,ENE,59,0.0,4.9,14,0.00,,---,0.00,VWS V14.01,2013-06-06 14:48:00,
2013-06-06 10:50:00,71.2,24.2,29.94,South,177,3.6,4.0,17,0.00,,---,0.00,VWS V14.01,2013-06-06 14:50:00,
2013-06-06 10:52:00,71.4,19.8,29.94,ESE,106,5.8,5.8,14,0.00,,---,0.00,VWS V14.01,2013-06-06 14:52:00,
2013-06-06 10:53:00,71.6,19.9,29.94,NNW,342,3.6,3.6,14,0.00,,---,0.00,VWS V14.01,2013-06-06 14:53:00,
2013-06-06 10:55:00,71.8,20.1,29.94,SE,135,3.6,5.8,14,0.00,,---,0.00,VWS V14.01,2013-06-06 14:55:00,
2013-06-06 10:57:00,72.1,20.4,29.94,East,97,5.8,5.8,14,0.00,,---,0.00,VWS V14.01,2013-06-06 14:57:00,
2013-06-06 10:58:00,72.1,20.4,29.94,NNW,344,4.0,4.0,14,0.00,,---,0.00,VWS V14.01,2013-06-06 14:58:00,
2013-06-06 10:59:00,72.1,14.8,29.94,ENE,76,2.2,2.2,11,0.00,,---,0.00,VWS V14.01,2013-06-06 14:59:00,
2013-06-06 11:01:00,72.1,14.8,29.94,ENE,77,5.4,5.8,11,0.00,,---,0.00,VWS V14.01,2013-06-06 15:01:00,
2013-06-06 11:02:00,72.1,14.8,29.94,SSE,157,3.1,4.0,11,0.00,,---,0.00,VWS V14.01,2013-06-06 15:02:00,
2013-06-06 11:03:00,72.3,14.9,29.94,South,189,3.6,3.6,11,0.00,,---,0.00,VWS V14.01,2013-06-06 15:03:00,
2013-06-06 11:04:00,72.3,20.5,29.94,South,189,0.0,2.2,14,0.00,,---,0.00,VWS V14.01,2013-06-06 15:04:00,
2013-06-06 11:06:00,72.5,20.6,29.94,SSW,192,0.0,0.0,14,0.00,,---,0.00,VWS V14.01,2013-06-06 15:06:00,
2013-06-06 11:08:00,72.9,20.9,29.94,East,96,4.5,4.5,14,0.00,,---,0.00,VWS V14.01,2013-06-06 15:08:00,
2013-06-06 11:09:00,73.0,21.1,29.94,SE,129,3.6,3.6,14,0.00,,---,0.00,VWS V14.01,2013-06-06 15:09:00,
2013-06-06 11:11:00,73.2,21.2,29.94,North,5,4.0,6.3,14,0.00,,---,0.00,VWS V14.01,2013-06-06 15:11:00,
2013-06-06 11:13:00,73.4,15.7,29.94,ESE,102,3.6,5.8,11,0.00,,---,0.00,VWS V14.01,2013-06-06 15:13:00,
2013-06-06 11:14:00,73.4,15.7,29.94,NNE,30,0.0,0.0,11,0.00,,---,0.00,VWS V14.01,2013-06-06 15:14:00,
2013-06-06 11:16:00,73.4,15.7,29.94,SE,137,6.3,6.3,11,0.00,,---,0.00,VWS V14.01,2013-06-06 15:16:00,
2013-06-06 11:18:00,73.4,19.6,29.94,SW,222,3.6,6.3,13,0.00,,---,0.00,VWS V14.01,2013-06-06 15:18:00,
2013-06-06 11:20:00,73.4,19.6,29.94,SE,130,3.1,3.1,13,0.00,,---,0.00,VWS V14.01,2013-06-06 15:20:00,
2013-06-06 11:21:00,73.6,19.8,29.94,SSE,159,5.8,5.8,13,0.00,,---,0.00,VWS V14.01,2013-06-06 15:21:00,
2013-06-06 11:23:00,73.6,19.8,29.94,East,97,4.0,4.0,13,0.00,,---,0.00,VWS V14.01,2013-06-06 15:23:00,
2013-06-06 11:24:00,73.6,19.8,29.94,ESE,111,2.7,4.0,13,0.00,,---,0.00,VWS V14.01,2013-06-06 15:24:00,
2013-06-06 11:25:00,73.6,19.8,29.94,SSE,150,3.1,5.8,13,0.00,,---,0.00,VWS V14.01,2013-06-06 15:25:00,
2013-06-06 11:26:00,73.6,19.8,29.94,South,171,7.6,7.6,13,0.00,,---,0.00,VWS V14.01,2013-06-06 15:26:00,
2013-06-06 11:28:00,73.8,19.9,29.94,ESE,108,4.9,4.9,13,0.00,,---,0.00,VWS V14.01,2013-06-06 15:28:00,
2013-06-06 11:29:00,73.8,19.9,29.94,ESE,114,3.1,3.1,13,0.00,,---,0.00,VWS V14.01,2013-06-06 15:29:00,
2013-06-06 11:30:00,73.8,19.9,29.94,NE,46,4.0,5.4,13,0.00,,---,0.00,VWS V14.01,2013-06-06 15:30:00,
2013-06-06 11:31:00,73.6,19.8,29.94,East,100,5.4,5.4,13,0.00,,---,0.00,VWS V14.01,2013-06-06 15:31:00,
2013-06-06 11:33:00,73.6,24.7,29.94,East,95,3.6,3.6,16,0.00,,---,0.00,VWS V14.01,2013-06-06 15:33:00,
2013-06-06 11:34:00,73.6,24.7,29.94,ESE,123,3.6,3.6,16,0.00,,---,0.00,VWS V14.01,2013-06-06 15:34:00,
2013-06-06 11:35:00,73.6,24.7,29.94,NNW,327,2.7,4.0,16,0.00,,---,0.00,VWS V14.01,2013-06-06 15:35:00,
2013-06-06 11:36:00,73.6,19.8,29.91,SE,146,4.9,6.3,13,0.00,,---,0.00,VWS V14.01,2013-06-06 15:36:00,
2013-06-06 11:38:00,73.6,19.8,29.91,SE,127,4.5,4.5,13,0.00,,---,0.00,VWS V14.01,2013-06-06 15:38:00,
2013-06-06 11:39:00,73.6,19.8,29.91,South,180,4.9,4.9,13,0.00,,---,0.00,VWS V14.01,2013-06-06 15:39:00,
2013-06-06 11:41:00,73.4,19.6,29.91,ESE,115,2.7,2.7,13,0.00,,---,0.00,VWS V14.01,2013-06-06 15:41:00,
2013-06-06 11:43:00,73.4,19.6,29.91,SSW,202,3.1,3.6,13,0.00,,---,0.00,VWS V14.01,2013-06-06 15:43:00,
2013-06-06 11:44:00,73.4,24.5,29.91,North,4,5.4,5.4,16,0.00,,---,0.00,VWS V14.01,2013-06-06 15:44:00,
2013-06-06 11:46:00,73.4,19.6,29.91,SE,131,2.7,6.3,13,0.00,,---,0.00,VWS V14.01,2013-06-06 15:46:00,
2013-06-06 11:47:00,73.6,19.8,29.91,ENE,72,2.7,2.7,13,0.00,,---,0.00,VWS V14.01,2013-06-06 15:47:00,
2013-06-06 11:49:00,73.8,24.8,29.91,SSE,150,4.0,4.0,16,0.00,,---,0.00,VWS V14.01,2013-06-06 15:49:00,
2013-06-06 11:50:00,73.6,19.8,29.91,NE,45,5.4,6.3,13,0.00,,---,0.00,VWS V14.01,2013-06-06 15:50:00,
2013-06-06 11:51:00,73.8,19.9,29.94,SE,145,2.7,3.6,13,0.00,,---,0.00,VWS V14.01,2013-06-06 15:51:00,
2013-06-06 11:53:00,73.6,19.8,29.94,SE,130,7.6,7.6,13,0.00,,---,0.00,VWS V14.01,2013-06-06 15:53:00,
2013-06-06 11:54:00,73.6,19.8,29.94,ENE,78,6.3,6.3,13,0.00,,---,0.00,VWS V14.01,2013-06-06 15:54:00,
2013-06-06 11:55:00,73.4,19.6,29.94,ESE,109,4.0,6.3,13,0.00,,---,0.00,VWS V14.01,2013-06-06 15:55:00,
2013-06-06 11:57:00,73.2,21.2,29.94,SSE,151,3.1,3.1,14,0.00,,---,0.00,VWS V14.01,2013-06-06 15:57:00,
2013-06-06 11:58:00,73.2,21.2,29.94,SE,144,2.7,5.4,14,0.00,,---,0.00,VWS V14.01,2013-06-06 15:58:00,
2013-06-06 11:59:00,73.2,21.2,29.94,SSW,209,2.7,2.7,14,0.00,,---,0.00,VWS V14.01,2013-06-06 15:59:00,
2013-06-06 12:00:00,73.2,21.2,29.94,ESE,104,4.0,4.0,14,0.00,,---,0.00,VWS V14.01,2013-06-06 16:00:00,
2013-06-06 12:02:00,73.2,21.2,29.94,NNE,20,6.3,6.3,14,0.00,,---,0.00,VWS V14.01,2013-06-06 16:02:00,
2013-06-06 12:03:00,73.2,21.2,29.94,NNW,342,4.0,6.3,14,0.00,,---,0.00,VWS V14.01,2013-06-06 16:03:00,
2013-06-06 12:04:00,73.2,21.2,29.94,SE,142,3.6,4.0,14,0.00,,---,0.00,VWS V14.01,2013-06-06 16:04:00,
2013-06-06 12:05:00,73.0,21.1,29.94,ESE,114,3.1,3.1,14,0.00,,---,0.00,VWS V14.01,2013-06-06 16:05:00,
2013-06-06 12:07:00,73.0,21.1,29.94,SSE,156,2.7,5.4,14,0.00,,---,0.00,VWS V14.01,2013-06-06 16:07:00,
2013-06-06 12:08:00,72.9,20.9,29.94,NNW,340,5.4,5.8,14,0.00,,---,0.00,VWS V14.01,2013-06-06 16:08:00,
2013-06-06 12:09:00,73.0,21.1,29.94,South,169,0.0,4.0,14,0.00,,---,0.00,VWS V14.01,2013-06-06 16:09:00,
2013-06-06 12:10:00,73.0,21.1,29.94,SW,231,0.0,2.2,14,0.00,,---,0.00,VWS V14.01,2013-06-06 16:10:00,
2013-06-06 12:12:00,73.2,21.2,29.94,South,177,3.1,3.6,14,0.00,,---,0.00,VWS V14.01,2013-06-06 16:12:00,
2013-06-06 12:13:00,73.4,19.6,29.94,NNW,341,4.0,4.0,13,0.00,,---,0.00,VWS V14.01,2013-06-06 16:13:00,
2013-06-06 12:14:00,73.6,19.8,29.94,ESE,110,5.8,5.8,13,0.00,,---,0.00,VWS V14.01,2013-06-06 16:14:00,
2013-06-06 12:15:00,73.6,19.8,29.94,East,80,4.9,5.8,13,0.00,,---,0.00,VWS V14.01,2013-06-06 16:15:00,
2013-06-06 12:17:00,73.4,19.6,29.94,SE,133,5.4,5.4,13,0.00,,---,0.00,VWS V14.01,2013-06-06 16:17:00,
2013-06-06 12:18:00,73.4,19.6,29.94,SSE,167,8.3,8.3,13,0.00,,---,0.00,VWS V14.01,2013-06-06 16:18:00,
2013-06-06 12:19:00,73.4,19.6,29.94,SSE,157,3.1,4.0,13,0.00,,---,0.00,VWS V14.01,2013-06-06 16:19:00,
2013-06-06 12:20:00,73.4,19.6,29.94,SSE,157,4.0,4.0,13,0.00,,---,0.00,VWS V14.01,2013-06-06 16:20:00,
2013-06-06 12:23:00,73.2,21.2,29.94,ESE,117,2.7,3.1,14,0.00,,---,0.00,VWS V14.01,2013-06-06 16:23:00,
2013-06-06 12:24:00,73.4,19.6,29.94,ESE,102,4.0,6.3,13,0.00,,---,0.00,VWS V14.01,2013-06-06 16:24:00,
2013-06-06 12:25:00,73.4,19.6,29.94,SE,127,3.6,3.6,13,0.00,,---,0.00,VWS V14.01,2013-06-06 16:25:00,
2013-06-06 12:28:00,73.4,19.6,29.94,SSE,159,2.7,8.3,13,0.00,,---,0.00,VWS V14.01,2013-06-06 16:28:00,
2013-06-06 12:30:00,73.4,19.6,29.94,ESE,120,3.6,3.6,13,0.00,,---,0.00,VWS V14.01,2013-06-06 16:30:00,
2013-06-06 12:31:00,73.6,19.8,29.94,East,82,2.7,5.4,13,0.00,,---,0.00,VWS V14.01,2013-06-06 16:31:00,
2013-06-06 12:33:00,73.8,19.9,29.94,South,177,5.8,5.8,13,0.00,,---,0.00,VWS V14.01,2013-06-06 16:33:00,
2013-06-06 12:35:00,74.1,20.2,29.94,South,186,4.9,5.4,13,0.00,,---,0.00,VWS V14.01,2013-06-06 16:35:00,
2013-06-06 12:36:00,74.3,20.3,29.91,SSE,161,5.4,5.4,13,0.00,,---,0.00,VWS V14.01,2013-06-06 16:36:00,
2013-06-06 12:38:00,74.3,16.4,29.91,ENE,61,3.6,5.4,11,0.00,,---,0.00,VWS V14.01,2013-06-06 16:38:00,
2013-06-06 12:40:00,74.3,16.4,29.91,SSE,148,5.4,5.4,11,0.00,,---,0.00,VWS V14.01,2013-06-06 16:40:00,
2013-06-06 12:42:00,74.3,16.4,29.91,SSE,159,4.0,6.7,11,0.00,,---,0.00,VWS V14.01,2013-06-06 16:42:00,
2013-06-06 12:43:00,74.5,16.6,29.91,ENE,63,3.6,8.1,11,0.00,,---,0.00,VWS V14.01,2013-06-06 16:43:00,
2013-06-06 12:45:00,74.1,16.3,29.91,East,100,3.6,8.7,11,0.00,,---,0.00,VWS V14.01,2013-06-06 16:45:00,
2013-06-06 12:46:00,74.3,16.4,29.91,South,174,5.8,8.7,11,0.00,,---,0.00,VWS V14.01,2013-06-06 16:46:00,
2013-06-06 12:47:00,74.3,16.4,29.91,SSE,149,2.2,2.7,11,0.00,,---,0.00,VWS V14.01,2013-06-06 16:47:00,
2013-06-06 12:48:00,74.3,16.4,29.91,SE,145,2.7,4.0,11,0.00,,---,0.00,VWS V14.01,2013-06-06 16:48:00,
2013-06-06 12:50:00,74.5,20.5,29.91,ESE,120,4.0,4.0,13,0.00,,---,0.00,VWS V14.01,2013-06-06 16:50:00,
2013-06-06 12:52:00,74.7,16.7,29.91,SSW,203,4.0,4.0,11,0.00,,---,0.00,VWS V14.01,2013-06-06 16:52:00,
2013-06-06 12:53:00,74.8,16.9,29.91,South,175,2.7,4.0,11,0.00,,---,0.00,VWS V14.01,2013-06-06 16:53:00,
2013-06-06 12:54:00,74.8,16.9,29.91,SSW,207,3.1,4.0,11,0.00,,---,0.00,VWS V14.01,2013-06-06 16:54:00,
2013-06-06 12:55:00,75.0,20.9,29.91,East,85,4.0,4.0,13,0.00,,---,0.00,VWS V14.01,2013-06-06 16:55:00,
2013-06-06 12:57:00,75.0,20.9,29.91,SSE,164,4.0,4.0,13,0.00,,---,0.00,VWS V14.01,2013-06-06 16:57:00,
2013-06-06 12:59:00,75.2,21.0,29.91,NE,43,4.9,6.3,13,0.00,,---,0.00,VWS V14.01,2013-06-06 16:59:00,
2013-06-06 13:00:00,75.2,21.0,29.91,ESE,104,3.1,3.1,13,0.00,,---,0.00,VWS V14.01,2013-06-06 17:00:00,
2013-06-06 13:02:00,75.2,21.0,29.91,East,99,8.3,8.3,13,0.00,,---,0.00,VWS V14.01,2013-06-06 17:02:00,
2013-06-06 13:03:00,75.4,15.1,29.91,East,92,2.7,8.3,10,0.00,,---,0.00,VWS V14.01,2013-06-06 17:03:00,
2013-06-06 13:04:00,75.6,21.3,29.91,SE,126,5.4,5.8,13,0.00,,---,0.00,VWS V14.01,2013-06-06 17:04:00,
2013-06-06 13:05:00,75.4,15.1,29.91,ESE,117,0.0,4.0,10,0.00,,---,0.00,VWS V14.01,2013-06-06 17:05:00,
2013-06-06 13:07:00,75.4,21.2,29.91,SSE,150,0.0,4.0,13,0.00,,---,0.00,VWS V14.01,2013-06-06 17:07:00,
2013-06-06 13:08:00,75.2,21.0,29.91,NNW,333,5.4,5.8,13,0.00,,---,0.00,VWS V14.01,2013-06-06 17:08:00,
2013-06-06 13:09:00,75.2,21.0,29.91,NNE,25,5.8,5.8,13,0.00,,---,0.00,VWS V14.01,2013-06-06 17:09:00,
2013-06-06 13:11:00,75.0,20.9,29.91,ESE,107,4.9,4.9,13,0.00,,---,0.00,VWS V14.01,2013-06-06 17:11:00,
2013-06-06 13:12:00,75.0,20.9,29.91,East,100,4.0,4.0,13,0.00,,---,0.00,VWS V14.01,2013-06-06 17:12:00,
2013-06-06 13:13:00,75.2,21.0,29.91,SE,129,3.1,4.9,13,0.00,,---,0.00,VWS V14.01,2013-06-06 17:13:00,
2013-06-06 13:14:00,75.2,21.0,29.91,NE,48,3.1,4.9,13,0.00,,---,0.00,VWS V14.01,2013-06-06 17:14:00,
2013-06-06 13:16:00,75.4,15.1,29.91,ENE,71,4.0,4.0,10,0.00,,---,0.00,VWS V14.01,2013-06-06 17:16:00,
2013-06-06 13:18:00,75.6,21.3,29.91,SE,124,4.0,4.0,13,0.00,,---,0.00,VWS V14.01,2013-06-06 17:18:00,
2013-06-06 13:19:00,75.6,21.3,29.91,ESE,122,5.4,5.4,13,0.00,,---,0.00,VWS V14.01,2013-06-06 17:19:00,
2013-06-06 13:21:00,75.4,21.2,29.91,SSW,193,4.0,6.3,13,0.00,,---,0.00,VWS V14.01,2013-06-06 17:21:00,
2013-06-06 13:23:00,75.6,21.3,29.91,NNE,20,2.7,3.6,13,0.00,,---,0.00,VWS V14.01,2013-06-06 17:23:00,
2013-06-06 13:24:00,75.6,21.3,29.91,East,100,3.6,3.6,13,0.00,,---,0.00,VWS V14.01,2013-06-06 17:24:00,
2013-06-06 13:26:00,75.6,21.3,29.91,South,184,3.1,4.0,13,0.00,,---,0.00,VWS V14.01,2013-06-06 17:26:00,
2013-06-06 13:28:00,75.7,21.5,29.91,ESE,109,4.0,4.0,13,0.00,,---,0.00,VWS V14.01,2013-06-06 17:28:00,
2013-06-06 13:29:00,75.7,21.5,29.91,ESE,119,2.7,4.0,13,0.00,,---,0.00,VWS V14.01,2013-06-06 17:29:00,
2013-06-06 13:31:00,75.9,21.6,29.91,East,98,4.9,5.4,13,0.00,,---,0.00,VWS V14.01,2013-06-06 17:31:00,
2013-06-06 13:33:00,75.7,21.5,29.91,East,89,2.7,3.1,13,0.00,,---,0.00,VWS V14.01,2013-06-06 17:33:00,
2013-06-06 13:34:00,75.7,21.5,29.91,ESE,122,4.0,4.9,13,0.00,,---,0.00,VWS V14.01,2013-06-06 17:34:00,
2013-06-06 13:36:00,75.4,21.2,29.91,South,190,7.6,7.6,13,0.00,,---,0.00,VWS V14.01,2013-06-06 17:36:00,
2013-06-06 13:39:00,75.4,21.2,29.91,ENE,62,2.2,6.3,13,0.00,,---,0.00,VWS V14.01,2013-06-06 17:39:00,
2013-06-06 13:42:00,75.6,21.3,29.91,East,100,3.6,8.1,13,0.00,,---,0.00,VWS V14.01,2013-06-06 17:42:00,
2013-06-06 13:44:00,75.6,21.3,29.91,SE,129,3.6,8.3,13,0.00,,---,0.00,VWS V14.01,2013-06-06 17:44:00,
2013-06-06 13:45:00,75.4,21.2,29.91,SSE,154,3.6,5.4,13,0.00,,---,0.00,VWS V14.01,2013-06-06 17:45:00,
2013-06-06 13:47:00,75.2,21.0,29.91,ESE,122,3.1,6.3,13,0.00,,---,0.00,VWS V14.01,2013-06-06 17:47:00,
2013-06-06 13:49:00,75.0,20.9,29.91,SE,127,3.6,4.0,13,0.00,,---,0.00,VWS V14.01,2013-06-06 17:49:00,
2013-06-06 13:50:00,74.8,25.7,29.91,North,6,4.9,4.9,16,0.00,,---,0.00,VWS V14.01,2013-06-06 17:50:00,
2013-06-06 13:52:00,74.8,20.7,29.88,ESE,119,4.0,6.3,13,0.00,,---,0.00,VWS V14.01,2013-06-06 17:52:00,
2013-06-06 13:54:00,74.8,20.7,29.88,South,175,2.2,4.0,13,0.00,,---,0.00,VWS V14.01,2013-06-06 17:54:00,
2013-06-06 13:55:00,74.7,25.5,29.88,NE,49,2.7,3.6,16,0.00,,---,0.00,VWS V14.01,2013-06-06 17:55:00,
2013-06-06 13:57:00,74.5,20.5,29.88,ENE,61,2.2,3.1,13,0.00,,---,0.00,VWS V14.01,2013-06-06 17:57:00,
2013-06-06 13:59:00,74.5,25.4,29.88,East,90,2.7,4.0,16,0.00,,---,0.00,VWS V14.01,2013-06-06 17:59:00,
2013-06-06 14:00:00,74.5,25.4,29.88,NE,46,2.2,4.0,16,0.00,,---,0.00,VWS V14.01,2013-06-06 18:00:00,
2013-06-06 14:03:00,74.5,25.4,29.88,SE,124,2.2,4.0,16,0.00,,---,0.00,VWS V14.01,2013-06-06 18:03:00,
2013-06-06 14:04:00,74.5,25.4,29.88,ESE,109,0.0,0.0,16,0.00,,---,0.00,VWS V14.01,2013-06-06 18:04:00,
2013-06-06 14:05:00,74.5,25.4,29.88,ENE,78,4.0,4.0,16,0.00,,---,0.00,VWS V14.01,2013-06-06 18:05:00,
2013-06-06 14:06:00,74.5,25.4,29.88,ESE,104,2.7,5.4,16,0.00,,---,0.00,VWS V14.01,2013-06-06 18:06:00,
2013-06-06 14:08:00,74.5,20.5,29.88,NNE,19,4.9,5.4,13,0.00,,---,0.00,VWS V14.01,2013-06-06 18:08:00,
2013-06-06 14:09:00,74.5,25.4,29.88,ENE,78,4.0,4.0,16,0.00,,---,0.00,VWS V14.01,2013-06-06 18:09:00,
2013-06-06 14:10:00,74.5,25.4,29.88,ENE,71,3.6,3.6,16,0.00,,---,0.00,VWS V14.01,2013-06-06 18:10:00,
2013-06-06 14:11:00,74.7,20.6,29.88,East,94,3.6,3.6,13,0.00,,---,0.00,VWS V14.01,2013-06-06 18:11:00,
2013-06-06 14:12:00,74.7,25.5,29.88,ENE,68,2.7,3.6,16,0.00,,---,0.00,VWS V14.01,2013-06-06 18:12:00,
2013-06-06 14:13:00,74.7,25.5,29.88,East,87,2.7,4.0,16,0.00,,---,0.00,VWS V14.01,2013-06-06 18:13:00,
2013-06-06 14:15:00,74.7,25.5,29.88,SSE,159,3.1,3.1,16,0.00,,---,0.00,VWS V14.01,2013-06-06 18:15:00,
2013-06-06 14:16:00,74.8,25.7,29.88,South,177,2.7,3.6,16,0.00,,---,0.00,VWS V14.01,2013-06-06 18:16:00,
2013-06-06 14:17:00,74.8,25.7,29.88,East,93,3.1,3.1,16,0.00,,---,0.00,VWS V14.01,2013-06-06 18:17:00,
2013-06-06 14:18:00,74.8,25.7,29.88,South,170,3.1,3.6,16,0.00,,---,0.00,VWS V14.01,2013-06-06 18:18:00,
2013-06-06 14:20:00,75.0,25.8,29.88,NNE,13,2.2,2.2,16,0.00,,---,0.00,VWS V14.01,2013-06-06 18:20:00,
2013-06-06 14:21:00,75.0,28.7,29.88,SE,133,2.2,2.2,18,0.00,,---,0.00,VWS V14.01,2013-06-06 18:21:00,
2013-06-06 14:22:00,75.2,24.4,29.88,SSE,154,2.7,2.7,15,0.00,,---,0.00,VWS V14.01,2013-06-06 18:22:00,
2013-06-06 14:23:00,75.4,24.6,29.88,ESE,107,3.6,3.6,15,0.00,,---,0.00,VWS V14.01,2013-06-06 18:23:00,
2013-06-06 14:25:00,75.6,24.7,29.88,ESE,123,0.0,0.0,15,0.00,,---,0.00,VWS V14.01,2013-06-06 18:25:00,
2013-06-06 14:26:00,75.6,24.7,29.88,NE,52,2.7,2.7,15,0.00,,---,0.00,VWS V14.01,2013-06-06 18:26:00,
2013-06-06 14:27:00,75.7,24.9,29.88,East,96,3.1,3.1,15,0.00,,---,0.00,VWS V14.01,2013-06-06 18:27:00,
2013-06-06 14:28:00,75.7,24.9,29.88,North,9,3.1,3.1,15,0.00,,---,0.00,VWS V14.01,2013-06-06 18:28:00,
2013-06-06 14:30:00,75.9,25.0,29.88,WSW,239,2.7,2.7,15,0.00,,---,0.00,VWS V14.01,2013-06-06 18:30:00,
2013-06-06 14:31:00,75.9,25.0,29.88,WSW,239,0.0,0.0,15,0.00,,---,0.00,VWS V14.01,2013-06-06 18:31:00,
2013-06-06 14:32:00,75.9,25.0,29.88,ENE,74,3.6,4.0,15,0.00,,---,0.00,VWS V14.01,2013-06-06 18:32:00,
2013-06-06 14:33:00,75.9,25.0,29.88,East,85,2.7,4.0,15,0.00,,---,0.00,VWS V14.01,2013-06-06 18:33:00,
2013-06-06 14:35:00,75.7,24.9,29.88,South,175,3.1,3.1,15,0.00,,---,0.00,VWS V14.01,2013-06-06 18:35:00,
2013-06-06 14:36:00,75.7,24.9,29.88,South,175,0.0,0.0,15,0.00,,---,0.00,VWS V14.01,2013-06-06 18:36:00,
2013-06-06 14:37:00,75.7,21.5,29.88,ESE,105,3.6,3.6,13,0.00,,---,0.00,VWS V14.01,2013-06-06 18:37:00,
2013-06-06 14:38:00,75.7,24.9,29.88,SSE,165,3.6,4.0,15,0.00,,---,0.00,VWS V14.01,2013-06-06 18:38:00,
2013-06-06 14:39:00,75.6,24.7,29.88,SE,124,4.0,4.0,15,0.00,,---,0.00,VWS V14.01,2013-06-06 18:39:00,
2013-06-06 14:40:00,75.7,24.9,29.88,East,97,2.7,2.7,15,0.00,,---,0.00,VWS V14.01,2013-06-06 18:40:00,
2013-06-06 14:41:00,75.7,24.9,29.88,East,85,2.7,3.1,15,0.00,,---,0.00,VWS V14.01,2013-06-06 18:41:00,
2013-06-06 14:42:00,75.9,25.0,29.88,ESE,104,3.1,3.1,15,0.00,,---,0.00,VWS V14.01,2013-06-06 18:42:00,
2013-06-06 14:43:00,75.9,25.0,29.88,ESE,115,4.9,4.9,15,0.00,,---,0.00,VWS V14.01,2013-06-06 18:43:00,
2013-06-06 14:44:00,75.9,25.0,29.88,East,93,3.1,6.3,15,0.00,,---,0.00,VWS V14.01,2013-06-06 18:44:00,
2013-06-06 14:45:00,76.1,25.1,29.88,SSE,166,4.0,4.0,15,0.00,,---,0.00,VWS V14.01,2013-06-06 18:45:00,
2013-06-06 14:46:00,75.9,25.0,29.88,SSE,160,7.6,7.6,15,0.00,,---,0.00,VWS V14.01,2013-06-06 18:46:00,
2013-06-06 14:47:00,76.1,21.7,29.88,ESE,102,3.6,5.8,13,0.00,,---,0.00,VWS V14.01,2013-06-06 18:47:00,
2013-06-06 14:48:00,76.1,21.7,29.88,East,98,4.0,4.0,13,0.00,,---,0.00,VWS V14.01,2013-06-06 18:48:00,
2013-06-06 14:49:00,76.3,25.3,29.88,NE,49,2.7,3.6,15,0.00,,---,0.00,VWS V14.01,2013-06-06 18:49:00,
2013-06-06 14:51:00,76.6,25.6,29.88,East,82,2.7,4.0,15,0.00,,---,0.00,VWS V14.01,2013-06-06 18:51:00,
2013-06-06 14:52:00,76.6,25.6,29.88,SE,132,3.6,5.4,15,0.00,,---,0.00,VWS V14.01,2013-06-06 18:52:00,
2013-06-06 14:53:00,76.8,22.3,29.88,SE,138,3.1,5.8,13,0.00,,---,0.00,VWS V14.01,2013-06-06 18:53:00,
2013-06-06 14:54:00,76.8,25.7,29.88,SE,127,3.1,5.8,15,0.00,,---,0.00,VWS V14.01,2013-06-06 18:54:00,
2013-06-06 14:56:00,76.8,25.7,29.88,ENE,74,5.4,5.4,15,0.00,,---,0.00,VWS V14.01,2013-06-06 18:56:00,
2013-06-06 14:57:00,76.8,25.7,29.88,NNE,28,4.0,4.0,15,0.00,,---,0.00,VWS V14.01,2013-06-06 18:57:00,
2013-06-06 14:58:00,76.8,25.7,29.88,SE,131,5.4,5.4,15,0.00,,---,0.00,VWS V14.01,2013-06-06 18:58:00,
2013-06-06 14:59:00,76.8,25.7,29.88,ESE,117,4.0,4.0,15,0.00,,---,0.00,VWS V14.01,2013-06-06 18:59:00,
2013-06-06 15:01:00,76.8,25.7,29.88,SE,125,4.0,6.3,15,0.00,,---,0.00,VWS V14.01,2013-06-06 19:01:00,
2013-06-06 15:02:00,76.8,22.3,29.88,SE,126,3.6,5.4,13,0.00,,---,0.00,VWS V14.01,2013-06-06 19:02:00,
2013-06-06 15:03:00,76.8,22.3,29.88,ENE,78,3.6,8.7,13,0.00,,---,0.00,VWS V14.01,2013-06-06 19:03:00,
2013-06-06 15:04:00,76.5,22.0,29.88,South,180,4.9,4.9,13,0.00,,---,0.00,VWS V14.01,2013-06-06 19:04:00,
2013-06-06 15:07:00,76.3,25.3,29.88,SE,126,3.1,3.6,15,0.00,,---,0.00,VWS V14.01,2013-06-06 19:07:00,
2013-06-06 15:08:00,76.3,25.3,29.88,ESE,119,3.1,3.6,15,0.00,,---,0.00,VWS V14.01,2013-06-06 19:08:00,
2013-06-06 15:09:00,76.1,25.1,29.88,South,172,0.0,3.6,15,0.00,,---,0.00,VWS V14.01,2013-06-06 19:09:00,
2013-06-06 15:10:00,76.3,25.3,29.88,SE,138,5.8,5.8,15,0.00,,---,0.00,VWS V14.01,2013-06-06 19:10:00,
2013-06-06 15:12:00,76.3,21.9,29.88,SE,141,3.6,4.0,13,0.00,,---,0.00,VWS V14.01,2013-06-06 19:12:00,
2013-06-06 15:13:00,76.3,25.3,29.88,South,186,3.6,3.6,15,0.00,,---,0.00,VWS V14.01,2013-06-06 19:13:00,
2013-06-06 15:14:00,76.3,21.9,29.88,South,175,3.1,3.6,13,0.00,,---,0.00,VWS V14.01,2013-06-06 19:14:00,
2013-06-06 15:15:00,76.1,25.1,29.88,SSW,195,4.0,8.3,15,0.00,,---,0.00,VWS V14.01,2013-06-06 19:15:00,
2013-06-06 15:18:00,75.7,24.9,29.88,South,169,0.0,0.0,15,0.00,,---,0.00,VWS V14.01,2013-06-06 19:18:00,
2013-06-06 15:19:00,75.7,24.9,29.88,ENE,78,3.6,5.4,15,0.00,,---,0.00,VWS V14.01,2013-06-06 19:19:00,
2013-06-06 15:20:00,75.7,29.3,29.88,SE,144,2.7,2.7,18,0.00,,---,0.00,VWS V14.01,2013-06-06 19:20:00,
2013-06-06 15:23:00,75.7,24.9,29.88,SSW,202,3.1,3.1,15,0.00,,---,0.00,VWS V14.01,2013-06-06 19:23:00,
2013-06-06 15:24:00,75.7,24.9,29.88,East,91,3.1,4.9,15,0.00,,---,0.00,VWS V14.01,2013-06-06 19:24:00,
2013-06-06 15:25:00,75.4,24.6,29.88,ENE,63,2.7,3.6,15,0.00,,---,0.00,VWS V14.01,2013-06-06 19:25:00,
2013-06-06 15:28:00,75.4,24.6,29.88,NW,324,0.0,5.4,15,0.00,,---,0.00,VWS V14.01,2013-06-06 19:28:00,
2013-06-06 15:29:00,75.4,24.6,29.88,SE,138,3.1,3.1,15,0.00,,---,0.00,VWS V14.01,2013-06-06 19:29:00,
2013-06-06 15:30:00,75.2,24.4,29.88,SSE,158,3.6,3.6,15,0.00,,---,0.00,VWS V14.01,2013-06-06 19:30:00,
2013-06-06 15:33:00,75.4,24.6,29.88,SW,217,3.1,3.1,15,0.00,,---,0.00,VWS V14.01,2013-06-06 19:33:00,
2013-06-06 15:34:00,75.4,24.6,29.88,East,100,2.7,3.6,15,0.00,,---,0.00,VWS V14.01,2013-06-06 19:34:00,
2013-06-06 15:36:00,75.4,24.6,29.88,ENE,69,7.2,7.2,15,0.00,,---,0.00,VWS V14.01,2013-06-06 19:36:00,
2013-06-06 15:38:00,75.6,29.1,29.85,East,98,2.7,5.8,18,0.00,,---,0.00,VWS V14.01,2013-06-06 19:38:00,
2013-06-06 15:39:00,75.6,29.1,29.85,NNE,32,2.7,5.8,18,0.00,,---,0.00,VWS V14.01,2013-06-06 19:39:00,
2013-06-06 15:41:00,75.4,29.0,29.85,East,82,2.7,2.7,18,0.00,,---,0.00,VWS V14.01,2013-06-06 19:41:00,
2013-06-06 15:43:00,75.4,29.0,29.85,ESE,111,3.1,3.6,18,0.00,,---,0.00,VWS V14.01,2013-06-06 19:43:00,
2013-06-06 15:44:00,75.4,29.0,29.85,SSE,152,3.1,3.1,18,0.00,,---,0.00,VWS V14.01,2013-06-06 19:44:00,
2013-06-06 15:47:00,75.4,29.0,29.85,SSE,151,0.0,4.0,18,0.00,,---,0.00,VWS V14.01,2013-06-06 19:47:00,
2013-06-06 15:48:00,75.4,24.6,29.85,ESE,115,3.1,3.6,15,0.00,,---,0.00,VWS V14.01,2013-06-06 19:48:00,
2013-06-06 15:49:00,75.4,24.6,29.85,ESE,121,3.6,3.6,15,0.00,,---,0.00,VWS V14.01,2013-06-06 19:49:00,
2013-06-06 15:53:00,75.4,24.6,29.88,East,91,0.0,4.0,15,0.00,,---,0.00,VWS V14.01,2013-06-06 19:53:00,
2013-06-06 15:54:00,75.4,24.6,29.88,ESE,117,2.7,3.6,15,0.00,,---,0.00,VWS V14.01,2013-06-06 19:54:00,
2013-06-06 15:58:00,75.4,29.0,29.88,SSE,153,2.2,2.2,18,0.00,,---,0.00,VWS V14.01,2013-06-06 19:58:00,
2013-06-06 15:59:00,75.4,29.0,29.88,SSE,158,0.0,3.1,18,0.00,,---,0.00,VWS V14.01,2013-06-06 19:59:00,
2013-06-06 16:03:00,75.4,29.0,29.88,ESE,122,2.7,3.6,18,0.00,,---,0.00,VWS V14.01,2013-06-06 20:03:00,
2013-06-06 16:04:00,75.4,29.0,29.88,ESE,122,2.2,3.6,18,0.00,,---,0.00,VWS V14.01,2013-06-06 20:04:00,
2013-06-06 16:05:00,75.4,29.0,29.88,SW,216,3.1,3.1,18,0.00,,---,0.00,VWS V14.01,2013-06-06 20:05:00,
2013-06-06 16:09:00,75.2,28.8,29.88,North,353,5.4,5.8,18,0.00,,---,0.00,VWS V14.01,2013-06-06 20:09:00,
2013-06-06 16:10:00,75.2,28.8,29.88,SE,131,3.6,5.4,18,0.00,,---,0.00,VWS V14.01,2013-06-06 20:10:00,
2013-06-06 16:14:00,74.8,28.5,29.88,East,79,2.2,5.4,18,0.00,,---,0.00,VWS V14.01,2013-06-06 20:14:00,
2013-06-06 16:15:00,74.8,28.5,29.88,SE,135,3.6,5.4,18,0.00,,---,0.00,VWS V14.01,2013-06-06 20:15:00,
2013-06-06 16:19:00,74.3,28.1,29.88,East,80,0.0,0.0,18,0.00,,---,0.00,VWS V14.01,2013-06-06 20:19:00,
2013-06-06 16:20:00,74.3,28.1,29.88,SSE,153,3.1,3.1,18,0.00,,---,0.00,VWS V14.01,2013-06-06 20:20:00,
2013-06-06 16:24:00,73.9,31.6,29.88,East,100,0.0,0.0,21,0.00,,---,0.00,VWS V14.01,2013-06-06 20:24:00,
2013-06-06 16:25:00,73.9,31.6,29.88,East,82,2.7,2.7,21,0.00,,---,0.00,VWS V14.01,2013-06-06 20:25:00,
2013-06-06 16:29:00,73.6,31.3,29.88,ESE,118,3.6,5.8,21,0.00,,---,0.00,VWS V14.01,2013-06-06 20:29:00,
2013-06-06 16:30:00,73.6,31.3,29.88,SW,217,3.1,3.1,21,0.00,,---,0.00,VWS V14.01,2013-06-06 20:30:00,
2013-06-06 16:31:00,73.4,31.1,29.88,ESE,109,5.4,5.4,21,0.00,,---,0.00,VWS V14.01,2013-06-06 20:31:00,
2013-06-06 16:34:00,73.2,31.0,29.88,SE,143,3.1,3.1,21,0.00,,---,0.00,VWS V14.01,2013-06-06 20:34:00,
2013-06-06 16:35:00,73.2,32.1,29.88,ESE,121,2.7,4.9,22,0.00,,---,0.00,VWS V14.01,2013-06-06 20:35:00,
2013-06-06 16:37:00,73.0,32.0,29.85,North,0,2.7,4.0,22,0.00,,---,0.00,VWS V14.01,2013-06-06 20:37:00,
2013-06-06 16:39:00,73.0,32.0,29.85,East,83,2.2,2.7,22,0.00,,---,0.00,VWS V14.01,2013-06-06 20:39:00,
2013-06-06 16:40:00,73.0,32.0,29.85,NE,43,2.2,2.2,22,0.00,,---,0.00,VWS V14.01,2013-06-06 20:40:00,
2013-06-06 16:42:00,73.2,32.1,29.85,East,89,0.0,0.0,22,0.00,,---,0.00,VWS V14.01,2013-06-06 20:42:00,
2013-06-06 16:45:00,73.2,32.1,29.85,ESE,114,4.9,4.9,22,0.00,,---,0.00,VWS V14.01,2013-06-06 20:45:00,
2013-06-06 16:46:00,73.2,32.1,29.85,SE,137,0.0,3.6,22,0.00,,---,0.00,VWS V14.01,2013-06-06 20:46:00,
2013-06-06 16:48:00,73.2,32.1,29.85,SSE,159,3.6,3.6,22,0.00,,---,0.00,VWS V14.01,2013-06-06 20:48:00,
2013-06-06 16:50:00,73.2,32.1,29.85,ENE,67,3.1,3.1,22,0.00,,---,0.00,VWS V14.01,2013-06-06 20:50:00,
2013-06-06 16:52:00,72.9,31.8,29.85,East,85,3.6,5.4,22,0.00,,---,0.00,VWS V14.01,2013-06-06 20:52:00,
2013-06-06 16:53:00,72.9,31.8,29.85,SSW,195,3.1,4.0,22,0.00,,---,0.00,VWS V14.01,2013-06-06 20:53:00,
2013-06-06 16:55:00,72.7,31.7,29.85,NNW,343,0.0,2.7,22,0.00,,---,0.00,VWS V14.01,2013-06-06 20:55:00,
2013-06-06 16:57:00,72.9,31.8,29.85,NE,36,2.7,3.6,22,0.00,,---,0.00,VWS V14.01,2013-06-06 20:57:00,
2013-06-06 16:59:00,72.7,31.7,29.85,NW,307,4.0,4.0,22,0.00,,---,0.00,VWS V14.01,2013-06-06 20:59:00,
2013-06-06 17:00:00,72.7,31.7,29.85,NNE,33,2.7,3.6,22,0.00,,---,0.00,VWS V14.01,2013-06-06 21:00:00,
2013-06-06 17:01:00,72.5,31.5,29.85,ESE,109,3.1,3.6,22,0.00,,---,0.00,VWS V14.01,2013-06-06 21:01:00,
2013-06-06 17:02:00,72.5,31.5,29.85,SE,135,2.7,3.6,22,0.00,,---,0.00,VWS V14.01,2013-06-06 21:02:00,
2013-06-06 17:04:00,72.1,31.2,29.85,SE,133,2.7,5.4,22,0.00,,---,0.00,VWS V14.01,2013-06-06 21:04:00,
2013-06-06 17:05:00,72.1,31.2,29.85,SE,124,2.2,2.7,22,0.00,,---,0.00,VWS V14.01,2013-06-06 21:05:00,
2013-06-06 17:07:00,72.1,31.2,29.85,ESE,117,2.2,5.4,22,0.00,,---,0.00,VWS V14.01,2013-06-06 21:07:00,
2013-06-06 17:09:00,72.0,31.1,29.85,East,92,0.0,3.1,22,0.00,,---,0.00,VWS V14.01,2013-06-06 21:09:00,
2013-06-06 17:10:00,72.0,31.1,29.85,East,92,0.0,0.0,22,0.00,,---,0.00,VWS V14.01,2013-06-06 21:10:00,
2013-06-06 17:12:00,72.0,31.1,29.85,ENE,58,2.2,4.9,22,0.00,,---,0.00,VWS V14.01,2013-06-06 21:12:00,
2013-06-06 17:14:00,72.0,31.1,29.85,ENE,64,3.6,4.0,22,0.00,,---,0.00,VWS V14.01,2013-06-06 21:14:00,
2013-06-06 17:16:00,72.0,31.1,29.85,ESE,105,2.2,5.8,22,0.00,,---,0.00,VWS V14.01,2013-06-06 21:16:00,
2013-06-06 17:17:00,71.8,30.9,29.85,West,277,2.2,3.1,22,0.00,,---,0.00,VWS V14.01,2013-06-06 21:17:00,
2013-06-06 17:19:00,71.6,30.8,29.85,ENE,64,3.1,3.6,22,0.00,,---,0.00,VWS V14.01,2013-06-06 21:19:00,
2013-06-06 17:21:00,71.6,30.8,29.85,WSW,245,2.7,3.6,22,0.00,,---,0.00,VWS V14.01,2013-06-06 21:21:00,
2013-06-06 17:22:00,71.4,31.7,29.85,East,86,3.1,4.9,23,0.00,,---,0.00,VWS V14.01,2013-06-06 21:22:00,
2013-06-06 17:23:00,71.4,31.7,29.85,East,86,0.0,4.9,23,0.00,,---,0.00,VWS V14.01,2013-06-06 21:23:00,
2013-06-06 17:25:00,71.4,31.7,29.85,East,95,2.7,2.7,23,0.00,,---,0.00,VWS V14.01,2013-06-06 21:25:00,
2013-06-06 17:26:00,71.4,31.7,29.85,ESE,113,2.7,3.1,23,0.00,,---,0.00,VWS V14.01,2013-06-06 21:26:00,
2013-06-06 17:27:00,71.4,31.7,29.85,East,89,4.0,4.0,23,0.00,,---,0.00,VWS V14.01,2013-06-06 21:27:00,
2013-06-06 17:28:00,71.4,31.7,29.85,ESE,110,0.0,2.7,23,0.00,,---,0.00,VWS V14.01,2013-06-06 21:28:00,
2013-06-06 17:30:00,71.2,31.6,29.85,ESE,117,4.0,4.0,23,0.00,,---,0.00,VWS V14.01,2013-06-06 21:30:00,
2013-06-06 17:31:00,71.2,31.6,29.85,ESE,123,3.6,5.4,23,0.00,,---,0.00,VWS V14.01,2013-06-06 21:31:00,
2013-06-06 17:32:00,71.2,31.6,29.85,SE,132,2.7,5.4,23,0.00,,---,0.00,VWS V14.01,2013-06-06 21:32:00,
2013-06-06 17:33:00,71.1,31.4,29.85,East,83,5.4,5.4,23,0.00,,---,0.00,VWS V14.01,2013-06-06 21:33:00,
2013-06-06 17:35:00,71.1,31.4,29.85,ENE,76,3.1,3.1,23,0.00,,---,0.00,VWS V14.01,2013-06-06 21:35:00,
2013-06-06 17:37:00,70.9,31.3,29.85,SSE,148,2.7,2.7,23,0.00,,---,0.00,VWS V14.01,2013-06-06 21:37:00,
2013-06-06 17:38:00,70.9,31.3,29.85,SE,136,4.5,4.5,23,0.00,,---,0.00,VWS V14.01,2013-06-06 21:38:00,
2013-06-06 17:40:00,70.7,31.1,29.85,East,91,4.0,4.9,23,0.00,,---,0.00,VWS V14.01,2013-06-06 21:40:00,
2013-06-06 17:42:00,70.7,32.2,29.85,ESE,113,5.4,5.4,24,0.00,,---,0.00,VWS V14.01,2013-06-06 21:42:00,
2013-06-06 17:43:00,70.7,31.1,29.85,WNW,282,8.1,8.7,23,0.00,,---,0.00,VWS V14.01,2013-06-06 21:43:00,
2013-06-06 17:45:00,70.5,31.0,29.85,ESE,123,4.0,4.0,23,0.00,,---,0.00,VWS V14.01,2013-06-06 21:45:00,
2013-06-06 17:47:00,70.5,32.0,29.85,SE,135,3.6,3.6,24,0.00,,---,0.00,VWS V14.01,2013-06-06 21:47:00,
2013-06-06 17:48:00,70.5,31.0,29.85,ESE,107,4.9,4.9,23,0.00,,---,0.00,VWS V14.01,2013-06-06 21:48:00,
2013-06-06 17:50:00,70.3,30.8,29.85,SE,139,3.1,4.0,23,0.00,,---,0.00,VWS V14.01,2013-06-06 21:50:00,
2013-06-06 17:52:00,70.3,31.9,29.85,ENE,60,0.0,3.6,24,0.00,,---,0.00,VWS V14.01,2013-06-06 21:52:00,
2013-06-06 17:53:00,70.2,31.7,29.85,ESE,105,5.4,5.4,24,0.00,,---,0.00,VWS V14.01,2013-06-06 21:53:00,
2013-06-06 17:55:00,70.2,31.7,29.85,SSE,152,0.0,4.0,24,0.00,,---,0.00,VWS V14.01,2013-06-06 21:55:00,
2013-06-06 17:57:00,70.2,31.7,29.85,South,172,4.9,7.6,24,0.00,,---,0.00,VWS V14.01,2013-06-06 21:57:00,
2013-06-06 17:58:00,70.2,31.7,29.85,ENE,67,4.0,7.6,24,0.00,,---,0.00,VWS V14.01,2013-06-06 21:58:00,
2013-06-06 18:00:00,70.0,31.6,29.85,SE,134,4.0,4.0,24,0.00,,---,0.00,VWS V14.01,2013-06-06 22:00:00,
2013-06-06 18:02:00,70.0,31.6,29.85,South,170,3.6,3.6,24,0.00,,---,0.00,VWS V14.01,2013-06-06 22:02:00,
2013-06-06 18:03:00,69.8,31.4,29.85,SSW,200,3.1,3.6,24,0.00,,---,0.00,VWS V14.01,2013-06-06 22:03:00,
2013-06-06 18:04:00,69.8,31.4,29.85,ESE,104,6.3,6.3,24,0.00,,---,0.00,VWS V14.01,2013-06-06 22:04:00,
2013-06-06 18:05:00,69.8,31.4,29.85,SE,145,3.6,5.4,24,0.00,,---,0.00,VWS V14.01,2013-06-06 22:05:00,
2013-06-06 18:07:00,69.8,31.4,29.85,SSE,148,0.0,0.0,24,0.00,,---,0.00,VWS V14.01,2013-06-06 22:07:00,
2013-06-06 18:09:00,69.8,31.4,29.85,SE,146,3.1,4.9,24,0.00,,---,0.00,VWS V14.01,2013-06-06 22:09:00,
2013-06-06 18:11:00,69.8,31.4,29.85,SE,144,2.7,2.7,24,0.00,,---,0.00,VWS V14.01,2013-06-06 22:11:00,
2013-06-06 18:12:00,69.8,32.4,29.85,ESE,119,3.6,3.6,25,0.00,,---,0.00,VWS V14.01,2013-06-06 22:12:00,
2013-06-06 18:14:00,69.8,32.4,29.85,ESE,119,0.0,4.0,25,0.00,,---,0.00,VWS V14.01,2013-06-06 22:14:00,
2013-06-06 18:17:00,69.6,32.3,29.85,West,260,2.7,3.1,25,0.00,,---,0.00,VWS V14.01,2013-06-06 22:17:00,
2013-06-06 18:18:00,69.6,33.2,29.85,SSW,197,0.0,3.1,26,0.00,,---,0.00,VWS V14.01,2013-06-06 22:18:00,
2013-06-06 18:19:00,69.6,33.2,29.85,SE,145,0.0,0.0,26,0.00,,---,0.00,VWS V14.01,2013-06-06 22:19:00,
2013-06-06 18:22:00,69.6,33.2,29.85,SE,145,0.0,0.0,26,0.00,,---,0.00,VWS V14.01,2013-06-06 22:22:00,
2013-06-06 18:23:00,69.6,33.2,29.85,SE,145,0.0,0.0,26,0.00,,---,0.00,VWS V14.01,2013-06-06 22:23:00,
2013-06-06 18:24:00,69.6,33.2,29.85,SSE,166,0.0,0.0,26,0.00,,---,0.00,VWS V14.01,2013-06-06 22:24:00,
2013-06-06 18:27:00,69.6,32.3,29.85,ESE,117,3.1,3.1,25,0.00,,---,0.00,VWS V14.01,2013-06-06 22:27:00,
2013-06-06 18:28:00,69.6,33.2,29.85,ESE,117,2.2,2.2,26,0.00,,---,0.00,VWS V14.01,2013-06-06 22:28:00,
2013-06-06 18:29:00,69.6,33.2,29.85,ENE,65,3.6,3.6,26,0.00,,---,0.00,VWS V14.01,2013-06-06 22:29:00,
2013-06-06 18:32:00,69.4,33.1,29.85,ESE,113,2.2,3.1,26,0.00,,---,0.00,VWS V14.01,2013-06-06 22:32:00,
2013-06-06 18:33:00,69.4,33.1,29.85,SSE,151,3.6,4.0,26,0.00,,---,0.00,VWS V14.01,2013-06-06 22:33:00,
2013-06-06 18:34:00,69.4,33.1,29.85,ENE,59,2.2,3.6,26,0.00,,---,0.00,VWS V14.01,2013-06-06 22:34:00,
2013-06-06 18:37:00,69.3,33.9,29.85,NNE,33,3.1,3.1,27,0.00,,---,0.00,VWS V14.01,2013-06-06 22:37:00,
2013-06-06 18:38:00,69.3,32.9,29.85,ENE,70,3.1,4.9,26,0.00,,---,0.00,VWS V14.01,2013-06-06 22:38:00,
2013-06-06 18:39:00,69.3,32.9,29.85,SE,139,3.6,4.9,26,0.00,,---,0.00,VWS V14.01,2013-06-06 22:39:00,
2013-06-06 18:42:00,69.1,32.8,29.85,SSW,199,2.2,3.6,26,0.00,,---,0.00,VWS V14.01,2013-06-06 22:42:00,
2013-06-06 18:43:00,69.1,32.8,29.85,ENE,62,0.0,2.7,26,0.00,,---,0.00,VWS V14.01,2013-06-06 22:43:00,
2013-06-06 18:44:00,69.1,32.8,29.85,NE,55,0.0,2.7,26,0.00,,---,0.00,VWS V14.01,2013-06-06 22:44:00,
2013-06-06 18:48:00,69.1,32.8,29.85,SE,130,2.7,3.1,26,0.00,,---,0.00,VWS V14.01,2013-06-06 22:48:00,
2013-06-06 18:49:00,69.1,32.8,29.85,East,89,2.7,4.0,26,0.00,,---,0.00,VWS V14.01,2013-06-06 22:49:00,
2013-06-06 18:53:00,68.9,32.6,29.85,North,353,0.0,2.7,26,0.00,,---,0.00,VWS V14.01,2013-06-06 22:53:00,
2013-06-06 18:54:00,68.9,32.6,29.85,ENE,78,3.6,3.6,26,0.00,,---,0.00,VWS V14.01,2013-06-06 22:54:00,
2013-06-06 18:58:00,68.7,32.5,29.85,WNW,291,2.7,4.0,26,0.00,,---,0.00,VWS V14.01,2013-06-06 22:58:00,
2013-06-06 18:59:00,68.7,32.5,29.85,ESE,119,2.7,3.6,26,0.00,,---,0.00,VWS V14.01,2013-06-06 22:59:00,
2013-06-06 19:00:00,68.7,32.5,29.85,East,79,2.2,2.2,26,0.00,,---,0.00,VWS V14.01,2013-06-06 23:00:00,
2013-06-06 19:03:00,68.7,32.5,29.85,ESE,121,2.7,2.7,26,0.00,,---,0.00,VWS V14.01,2013-06-06 23:03:00,
2013-06-06 19:04:00,68.7,32.5,29.85,SSE,151,2.2,2.2,26,0.00,,---,0.00,VWS V14.01,2013-06-06 23:04:00,
2013-06-06 19:05:00,68.7,32.5,29.85,SSE,151,0.0,0.0,26,0.00,,---,0.00,VWS V14.01,2013-06-06 23:05:00,
2013-06-06 19:08:00,68.7,32.5,29.85,NNE,19,0.0,0.0,26,0.00,,---,0.00,VWS V14.01,2013-06-06 23:08:00,
2013-06-06 19:09:00,68.7,32.5,29.85,North,0,2.7,3.1,26,0.00,,---,0.00,VWS V14.01,2013-06-06 23:09:00,
2013-06-06 19:10:00,68.7,32.5,29.85,NW,320,3.1,3.1,26,0.00,,---,0.00,VWS V14.01,2013-06-06 23:10:00,
2013-06-06 19:13:00,68.7,31.5,29.85,SSW,207,0.0,0.0,25,0.00,,---,0.00,VWS V14.01,2013-06-06 23:13:00,
2013-06-06 19:14:00,68.7,31.5,29.85,SSE,159,3.1,3.1,25,0.00,,---,0.00,VWS V14.01,2013-06-06 23:14:00,
2013-06-06 19:15:00,68.7,31.5,29.85,East,100,3.6,3.6,25,0.00,,---,0.00,VWS V14.01,2013-06-06 23:15:00,
2013-06-06 19:18:00,68.4,31.2,29.85,WNW,289,4.0,4.0,25,0.00,,---,0.00,VWS V14.01,2013-06-06 23:18:00,
2013-06-06 19:19:00,68.4,31.2,29.85,SSW,213,2.7,2.7,25,0.00,,---,0.00,VWS V14.01,2013-06-06 23:19:00,
2013-06-06 19:20:00,68.4,31.2,29.85,SSW,213,2.2,3.1,25,0.00,,---,0.00,VWS V14.01,2013-06-06 23:20:00,
2013-06-06 19:23:00,68.4,32.2,29.85,East,89,3.6,3.6,26,0.00,,---,0.00,VWS V14.01,2013-06-06 23:23:00,
2013-06-06 19:24:00,68.2,31.0,29.85,East,89,0.0,2.7,25,0.00,,---,0.00,VWS V14.01,2013-06-06 23:24:00,
2013-06-06 19:25:00,68.2,31.0,29.85,East,89,0.0,2.7,25,0.00,,---,0.00,VWS V14.01,2013-06-06 23:25:00,
2013-06-06 19:28:00,68.2,31.0,29.85,ENE,69,3.1,3.6,25,0.00,,---,0.00,VWS V14.01,2013-06-06 23:28:00,
2013-06-06 19:30:00,68.2,31.0,29.85,SSW,194,0.0,2.2,25,0.00,,---,0.00,VWS V14.01,2013-06-06 23:30:00,
2013-06-06 19:33:00,68.2,31.0,29.85,East,97,2.7,2.7,25,0.00,,---,0.00,VWS V14.01,2013-06-06 23:33:00,
2013-06-06 19:35:00,68.0,30.9,29.85,SSE,158,4.0,4.0,25,0.00,,---,0.00,VWS V14.01,2013-06-06 23:35:00,
2013-06-06 19:38:00,68.0,30.9,29.85,ENE,61,2.7,2.7,25,0.00,,---,0.00,VWS V14.01,2013-06-06 23:38:00,
2013-06-06 19:40:00,68.0,30.9,29.85,East,99,0.0,2.7,25,0.00,,---,0.00,VWS V14.01,2013-06-06 23:40:00,
2013-06-06 19:41:00,68.0,30.9,29.85,South,178,3.6,3.6,25,0.00,,---,0.00,VWS V14.01,2013-06-06 23:41:00,
2013-06-06 19:43:00,68.0,31.9,29.85,East,101,5.8,5.8,26,0.00,,---,0.00,VWS V14.01,2013-06-06 23:43:00,
2013-06-06 19:45:00,67.8,30.7,29.85,NE,39,2.7,4.0,25,0.00,,---,0.00,VWS V14.01,2013-06-06 23:45:00,
2013-06-06 19:47:00,67.8,30.7,29.85,ESE,119,0.0,4.0,25,0.00,,---,0.00,VWS V14.01,2013-06-06 23:47:00,
2013-06-06 19:48:00,67.8,31.7,29.85,ESE,104,0.0,3.1,26,0.00,,---,0.00,VWS V14.01,2013-06-06 23:48:00,
2013-06-06 19:50:00,67.8,31.7,29.85,ESE,122,3.1,3.6,26,0.00,,---,0.00,VWS V14.01,2013-06-06 23:50:00,
2013-06-06 19:51:00,67.8,31.7,29.85,ESE,122,2.2,3.6,26,0.00,,---,0.00,VWS V14.01,2013-06-06 23:51:00,
2013-06-06 19:52:00,67.8,32.7,29.85,ENE,61,3.1,3.1,27,0.00,,---,0.00,VWS V14.01,2013-06-06 23:52:00,
2013-06-06 19:54:00,67.8,31.7,29.85,SE,128,0.0,0.0,26,0.00,,---,0.00,VWS V14.01,2013-06-06 23:54:00,
2013-06-06 19:56:00,67.8,31.7,29.85,ENE,69,2.2,2.7,26,0.00,,---,0.00,VWS V14.01,2013-06-06 23:56:00,
2013-06-06 19:57:00,67.8,30.7,29.85,NNE,18,2.7,5.4,25,0.00,,---,0.00,VWS V14.01,2013-06-06 23:57:00,
2013-06-06 19:59:00,67.8,31.7,29.85,NE,42,3.6,3.6,26,0.00,,---,0.00,VWS V14.01,2013-06-06 23:59:00,
2013-06-06 20:01:00,67.6,31.6,29.85,ENE,58,2.7,3.1,26,0.00,,---,0.00,VWS V14.01,2013-06-07 00:01:00,
2013-06-06 20:02:00,67.6,32.5,29.85,SE,142,2.2,3.1,27,0.00,,---,0.00,VWS V14.01,2013-06-07 00:02:00,
2013-06-06 20:04:00,67.6,31.6,29.85,ENE,77,0.0,2.2,26,0.00,,---,0.00,VWS V14.01,2013-06-07 00:04:00,
2013-06-06 20:06:00,67.6,32.5,29.85,ENE,77,0.0,0.0,27,0.00,,---,0.00,VWS V14.01,2013-06-07 00:06:00,
2013-06-06 20:07:00,67.5,32.3,29.85,South,186,0.0,0.0,27,0.00,,---,0.00,VWS V14.01,2013-06-07 00:07:00,
2013-06-06 20:09:00,67.5,32.3,29.85,South,186,0.0,0.0,27,0.00,,---,0.00,VWS V14.01,2013-06-07 00:09:00,
2013-06-06 20:11:00,67.5,32.3,29.85,South,186,0.0,0.0,27,0.00,,---,0.00,VWS V14.01,2013-06-07 00:11:00,
2013-06-06 20:12:00,67.5,32.3,29.85,South,186,0.0,0.0,27,0.00,,---,0.00,VWS V14.01,2013-06-07 00:12:00,
2013-06-06 20:14:00,67.5,32.3,29.85,SE,128,0.0,2.2,27,0.00,,---,0.00,VWS V14.01,2013-06-07 00:14:00,
2013-06-06 20:16:00,67.5,32.3,29.85,SE,128,0.0,0.0,27,0.00,,---,0.00,VWS V14.01,2013-06-07 00:16:00,
2013-06-06 20:17:00,67.5,32.3,29.85,SE,128,0.0,0.0,27,0.00,,---,0.00,VWS V14.01,2013-06-07 00:17:00,
2013-06-06 20:20:00,67.5,32.3,29.85,ESE,113,0.0,0.0,27,0.00,,---,0.00,VWS V14.01,2013-06-07 00:20:00,
2013-06-06 20:21:00,67.5,31.4,29.85,East,80,2.7,2.7,26,0.00,,---,0.00,VWS V14.01,2013-06-07 00:21:00,
2013-06-06 20:22:00,67.5,32.3,29.85,East,80,0.0,2.2,27,0.00,,---,0.00,VWS V14.01,2013-06-07 00:22:00,
2013-06-06 20:25:00,67.5,32.3,29.85,SE,141,0.0,0.0,27,0.00,,---,0.00,VWS V14.01,2013-06-07 00:25:00,
2013-06-06 20:27:00,67.5,32.3,29.85,NW,304,2.7,3.1,27,0.00,,---,0.00,VWS V14.01,2013-06-07 00:27:00,
2013-06-06 20:28:00,67.5,32.3,29.85,NE,56,2.2,3.1,27,0.00,,---,0.00,VWS V14.01,2013-06-07 00:28:00,
2013-06-06 20:30:00,67.5,32.3,29.85,NNE,22,2.2,2.2,27,0.00,,---,0.00,VWS V14.01,2013-06-07 00:30:00,
2013-06-06 20:32:00,67.3,32.2,29.85,East,93,2.2,2.2,27,0.00,,---,0.00,VWS V14.01,2013-06-07 00:32:00,
2013-06-06 20:33:00,67.3,32.2,29.85,East,93,0.0,2.2,27,0.00,,---,0.00,VWS V14.01,2013-06-07 00:33:00,
2013-06-06 20:35:00,67.3,32.2,29.85,NE,36,3.1,3.1,27,0.00,,---,0.00,VWS V14.01,2013-06-07 00:35:00,
2013-06-06 20:37:00,67.3,32.2,29.85,NE,36,0.0,2.2,27,0.00,,---,0.00,VWS V14.01,2013-06-07 00:37:00,
2013-06-06 20:38:00,67.3,32.2,29.85,NE,36,0.0,2.2,27,0.00,,---,0.00,VWS V14.01,2013-06-07 00:38:00,
2013-06-06 20:40:00,67.3,32.2,29.85,SE,124,2.7,2.7,27,0.00,,---,0.00,VWS V14.01,2013-06-07 00:40:00,
2013-06-06 20:42:00,67.3,32.2,29.85,SE,139,0.0,0.0,27,0.00,,---,0.00,VWS V14.01,2013-06-07 00:42:00,
2013-06-06 20:43:00,67.3,32.2,29.85,SE,139,0.0,0.0,27,0.00,,---,0.00,VWS V14.01,2013-06-07 00:43:00,
2013-06-06 20:46:00,67.3,32.2,29.85,SE,145,0.0,0.0,27,0.00,,---,0.00,VWS V14.01,2013-06-07 00:46:00,
2013-06-06 20:47:00,67.3,32.2,29.85,NW,308,2.2,2.2,27,0.00,,---,0.00,VWS V14.01,2013-06-07 00:47:00,
2013-06-06 20:48:00,67.3,32.2,29.85,NW,308,0.0,0.0,27,0.00,,---,0.00,VWS V14.01,2013-06-07 00:48:00,
2013-06-06 20:52:00,67.1,32.9,29.85,NNE,23,0.0,0.0,28,0.00,,---,0.00,VWS V14.01,2013-06-07 00:52:00,
2013-06-06 20:53:00,67.1,32.0,29.85,NNE,23,0.0,0.0,27,0.00,,---,0.00,VWS V14.01,2013-06-07 00:53:00,
2013-06-06 20:57:00,67.1,32.9,29.85,ENE,60,2.2,3.6,28,0.00,,---,0.00,VWS V14.01,2013-06-07 00:57:00,
2013-06-06 20:58:00,66.9,32.8,29.85,ENE,60,0.0,0.0,28,0.00,,---,0.00,VWS V14.01,2013-06-07 00:58:00,
2013-06-06 21:02:00,66.9,33.7,29.85,North,4,2.7,2.7,29,0.00,,---,0.00,VWS V14.01,2013-06-07 01:02:00,
2013-06-06 21:03:00,66.9,33.7,29.85,SSE,163,0.0,3.1,29,0.00,,---,0.00,VWS V14.01,2013-06-07 01:03:00,
2013-06-06 21:04:00,66.9,33.7,29.85,SSE,163,0.0,3.1,29,0.00,,---,0.00,VWS V14.01,2013-06-07 01:04:00,
2013-06-06 21:08:00,66.9,34.5,29.85,SSE,163,0.0,0.0,30,0.00,,---,0.00,VWS V14.01,2013-06-07 01:08:00,
2013-06-06 21:09:00,66.9,34.5,29.85,SSE,163,0.0,0.0,30,0.00,,---,0.00,VWS V14.01,2013-06-07 01:09:00,
2013-06-06 21:13:00,66.9,35.3,29.85,SSE,163,0.0,0.0,31,0.00,,---,0.00,VWS V14.01,2013-06-07 01:13:00,
2013-06-06 21:14:00,66.9,36.1,29.85,SSE,163,0.0,0.0,32,0.00,,---,0.00,VWS V14.01,2013-06-07 01:14:00,
2013-06-06 21:18:00,66.7,36.8,29.85,SSW,194,0.0,0.0,33,0.00,,---,0.00,VWS V14.01,2013-06-07 01:18:00,
2013-06-06 21:19:00,66.7,36.8,29.85,SSW,194,0.0,0.0,33,0.00,,---,0.00,VWS V14.01,2013-06-07 01:19:00,
2013-06-06 21:23:00,66.7,36.8,29.85,SSW,194,0.0,0.0,33,0.00,,---,0.00,VWS V14.01,2013-06-07 01:23:00,
2013-06-06 21:24:00,66.7,36.8,29.85,SSW,194,0.0,2.2,33,0.00,,---,0.00,VWS V14.01,2013-06-07 01:24:00,
2013-06-06 21:28:00,66.6,36.6,29.85,SSW,194,0.0,0.0,33,0.00,,---,0.00,VWS V14.01,2013-06-07 01:28:00,
2013-06-06 21:29:00,66.6,36.6,29.85,SSW,194,0.0,0.0,33,0.00,,---,0.00,VWS V14.01,2013-06-07 01:29:00,
2013-06-06 21:33:00,66.4,37.2,29.85,SSW,194,0.0,0.0,34,0.00,,---,0.00,VWS V14.01,2013-06-07 01:33:00,
2013-06-06 21:34:00,66.4,37.2,29.85,SSW,194,0.0,0.0,34,0.00,,---,0.00,VWS V14.01,2013-06-07 01:34:00,
2013-06-06 21:38:00,66.4,37.2,29.85,SSE,154,0.0,0.0,34,0.00,,---,0.00,VWS V14.01,2013-06-07 01:38:00,
2013-06-06 21:39:00,66.4,37.2,29.85,SSE,154,0.0,0.0,34,0.00,,---,0.00,VWS V14.01,2013-06-07 01:39:00,
2013-06-06 21:40:00,66.4,37.2,29.85,SSE,154,0.0,0.0,34,0.00,,---,0.00,VWS V14.01,2013-06-07 01:40:00,
2013-06-06 21:44:00,66.2,37.0,29.85,West,263,2.7,2.7,34,0.00,,---,0.00,VWS V14.01,2013-06-07 01:44:00,
2013-06-06 21:45:00,66.2,37.0,29.85,West,274,0.0,0.0,34,0.00,,---,0.00,VWS V14.01,2013-06-07 01:45:00,
2013-06-06 21:49:00,66.2,37.8,29.85,NNW,336,0.0,0.0,35,0.00,,---,0.00,VWS V14.01,2013-06-07 01:49:00,
2013-06-06 21:50:00,66.2,37.8,29.85,NNW,336,0.0,0.0,35,0.00,,---,0.00,VWS V14.01,2013-06-07 01:50:00,
2013-06-06 21:54:00,66.0,37.6,29.85,ENE,64,0.0,0.0,35,0.00,,---,0.00,VWS V14.01,2013-06-07 01:54:00,
2013-06-06 21:55:00,66.0,37.6,29.85,ENE,64,0.0,0.0,35,0.00,,---,0.00,VWS V14.01,2013-06-07 01:55:00,
2013-06-06 21:59:00,66.0,38.3,29.85,SE,137,0.0,0.0,36,0.00,,---,0.00,VWS V14.01,2013-06-07 01:59:00,
2013-06-06 22:00:00,66.0,37.6,29.85,NNE,27,0.0,4.0,35,0.00,,---,0.00,VWS V14.01,2013-06-07 02:00:00,
2013-06-06 22:04:00,66.0,38.3,29.85,NNE,27,0.0,0.0,36,0.00,,---,0.00,VWS V14.01,2013-06-07 02:04:00,
2013-06-06 22:05:00,66.0,38.3,29.85,NNE,27,0.0,0.0,36,0.00,,---,0.00,VWS V14.01,2013-06-07 02:05:00,
2013-06-06 22:09:00,66.0,38.3,29.85,NNE,27,0.0,0.0,36,0.00,,---,0.00,VWS V14.01,2013-06-07 02:09:00,
2013-06-06 22:10:00,66.0,38.3,29.85,ENE,66,3.6,4.5,36,0.00,,---,0.00,VWS V14.01,2013-06-07 02:10:00,
2013-06-06 22:14:00,66.0,38.3,29.85,South,169,3.1,3.1,36,0.00,,---,0.00,VWS V14.01,2013-06-07 02:14:00,
2013-06-06 22:15:00,66.0,37.6,29.85,ENE,58,3.1,3.1,35,0.00,,---,0.00,VWS V14.01,2013-06-07 02:15:00,
2013-06-06 22:16:00,65.8,37.5,29.85,ESE,102,3.6,3.6,35,0.00,,---,0.00,VWS V14.01,2013-06-07 02:16:00,
2013-06-06 22:19:00,65.8,38.2,29.85,NE,38,2.7,2.7,36,0.00,,---,0.00,VWS V14.01,2013-06-07 02:19:00,
2013-06-06 22:20:00,65.8,37.5,29.85,East,83,2.7,2.7,35,0.00,,---,0.00,VWS V14.01,2013-06-07 02:20:00,
2013-06-06 22:21:00,65.8,37.5,29.85,East,83,0.0,2.7,35,0.00,,---,0.00,VWS V14.01,2013-06-07 02:21:00,
2013-06-06 22:24:00,65.8,38.2,29.85,ESE,108,0.0,0.0,36,0.00,,---,0.00,VWS V14.01,2013-06-07 02:24:00,
2013-06-06 22:25:00,65.8,38.2,29.85,ESE,116,0.0,0.0,36,0.00,,---,0.00,VWS V14.01,2013-06-07 02:25:00,
2013-06-06 22:26:00,65.8,38.2,29.85,North,2,3.1,3.1,36,0.00,,---,0.00,VWS V14.01,2013-06-07 02:26:00,
2013-06-06 22:29:00,65.8,38.2,29.85,North,2,0.0,0.0,36,0.00,,---,0.00,VWS V14.01,2013-06-07 02:29:00,
2013-06-06 22:30:00,65.8,38.2,29.85,ENE,59,3.6,3.6,36,0.00,,---,0.00,VWS V14.01,2013-06-07 02:30:00,
2013-06-06 22:31:00,65.8,38.2,29.85,ENE,59,0.0,0.0,36,0.00,,---,0.00,VWS V14.01,2013-06-07 02:31:00,
2013-06-06 22:34:00,65.8,38.2,29.85,East,79,0.0,0.0,36,0.00,,---,0.00,VWS V14.01,2013-06-07 02:34:00,
2013-06-06 22:35:00,65.8,38.2,29.85,East,79,0.0,0.0,36,0.00,,---,0.00,VWS V14.01,2013-06-07 02:35:00,
2013-06-06 22:37:00,65.8,38.2,29.85,East,91,0.0,2.2,36,0.00,,---,0.00,VWS V14.01,2013-06-07 02:37:00,
2013-06-06 22:40:00,65.8,38.2,29.85,NE,50,4.0,4.0,36,0.00,,---,0.00,VWS V14.01,2013-06-07 02:40:00,
2013-06-06 22:41:00,65.8,38.2,29.85,East,94,2.7,4.0,36,0.00,,---,0.00,VWS V14.01,2013-06-07 02:41:00,
2013-06-06 22:42:00,65.8,38.2,29.85,East,94,0.0,2.7,36,0.00,,---,0.00,VWS V14.01,2013-06-07 02:42:00,
2013-06-06 22:45:00,65.8,38.9,29.85,ESE,111,0.0,0.0,37,0.00,,---,0.00,VWS V14.01,2013-06-07 02:45:00,
2013-06-06 22:46:00,65.8,38.9,29.85,ESE,111,0.0,0.0,37,0.00,,---,0.00,VWS V14.01,2013-06-07 02:46:00,
2013-06-06 22:47:00,65.8,38.9,29.85,ESE,111,0.0,0.0,37,0.00,,---,0.00,VWS V14.01,2013-06-07 02:47:00,
2013-06-06 22:50:00,65.8,38.9,29.85,SE,134,2.7,2.7,37,0.00,,---,0.00,VWS V14.01,2013-06-07 02:50:00,
2013-06-06 22:51:00,65.8,38.9,29.83,SE,128,3.6,3.6,37,0.00,,---,0.00,VWS V14.01,2013-06-07 02:51:00,
2013-06-06 22:52:00,65.8,39.5,29.83,SE,128,2.2,2.2,38,0.00,,---,0.00,VWS V14.01,2013-06-07 02:52:00,
2013-06-06 22:55:00,65.8,39.5,29.83,SE,126,0.0,2.2,38,0.00,,---,0.00,VWS V14.01,2013-06-07 02:55:00,
2013-06-06 22:57:00,65.8,39.5,29.83,SE,125,2.7,2.7,38,0.00,,---,0.00,VWS V14.01,2013-06-07 02:57:00,
2013-06-06 23:00:00,65.7,40.0,29.83,SE,131,2.2,2.2,39,0.00,,---,0.00,VWS V14.01,2013-06-07 03:00:00,
2013-06-06 23:02:00,65.7,40.7,29.83,ESE,110,2.7,3.1,40,0.00,,---,0.00,VWS V14.01,2013-06-07 03:02:00,
2013-06-06 23:06:00,65.7,41.3,29.83,East,90,0.0,3.1,41,0.00,,---,0.00,VWS V14.01,2013-06-07 03:06:00,
2013-06-06 23:07:00,65.7,41.3,29.83,ESE,110,2.2,2.2,41,0.00,,---,0.00,VWS V14.01,2013-06-07 03:07:00,
2013-06-06 23:08:00,65.7,41.3,29.83,ESE,118,2.7,2.7,41,0.00,,---,0.00,VWS V14.01,2013-06-07 03:08:00,
2013-06-06 23:11:00,65.7,42.6,29.83,ESE,114,2.7,3.1,43,0.00,,---,0.00,VWS V14.01,2013-06-07 03:11:00,
2013-06-06 23:12:00,65.7,42.6,29.83,North,357,3.1,3.6,43,0.00,,---,0.00,VWS V14.01,2013-06-07 03:12:00,
2013-06-06 23:13:00,65.5,42.4,29.83,ESE,122,3.1,3.1,43,0.00,,---,0.00,VWS V14.01,2013-06-07 03:13:00,
2013-06-06 23:16:00,65.5,43.0,29.83,NNW,339,0.0,0.0,44,0.00,,---,0.00,VWS V14.01,2013-06-07 03:16:00,
2013-06-06 23:17:00,65.5,43.0,29.83,West,281,3.1,3.1,44,0.00,,---,0.00,VWS V14.01,2013-06-07 03:17:00,
2013-06-06 23:18:00,65.5,43.0,29.83,East,100,2.7,3.6,44,0.00,,---,0.00,VWS V14.01,2013-06-07 03:18:00,
2013-06-06 23:21:00,65.5,43.0,29.83,SE,135,0.0,0.0,44,0.00,,---,0.00,VWS V14.01,2013-06-07 03:21:00,
2013-06-06 23:22:00,65.5,43.0,29.83,SE,135,0.0,2.7,44,0.00,,---,0.00,VWS V14.01,2013-06-07 03:22:00,
2013-06-06 23:23:00,65.5,43.0,29.83,NNW,329,0.0,2.7,44,0.00,,---,0.00,VWS V14.01,2013-06-07 03:23:00,
2013-06-06 23:26:00,65.3,43.4,29.83,ENE,58,0.0,0.0,45,0.00,,---,0.00,VWS V14.01,2013-06-07 03:26:00,
2013-06-06 23:27:00,65.3,43.4,29.83,ENE,58,0.0,0.0,45,0.00,,---,0.00,VWS V14.01,2013-06-07 03:27:00,
2013-06-06 23:28:00,65.3,43.4,29.83,ENE,58,0.0,0.0,45,0.00,,---,0.00,VWS V14.01,2013-06-07 03:28:00,
2013-06-06 23:29:00,65.3,43.4,29.83,SE,146,0.0,0.0,45,0.00,,---,0.00,VWS V14.01,2013-06-07 03:29:00,
2013-06-06 23:32:00,65.3,44.0,29.83,SSE,168,0.0,0.0,46,0.00,,---,0.00,VWS V14.01,2013-06-07 03:32:00,
2013-06-06 23:33:00,65.3,44.6,29.83,ENE,75,2.7,2.7,47,0.00,,---,0.00,VWS V14.01,2013-06-07 03:33:00,
2013-06-06 23:34:00,65.3,44.6,29.83,ENE,75,0.0,0.0,47,0.00,,---,0.00,VWS V14.01,2013-06-07 03:34:00,
2013-06-06 23:37:00,65.3,45.1,29.83,East,80,0.0,0.0,48,0.00,,---,0.00,VWS V14.01,2013-06-07 03:37:00,
2013-06-06 23:38:00,65.3,45.1,29.83,East,80,0.0,0.0,48,0.00,,---,0.00,VWS V14.01,2013-06-07 03:38:00,
2013-06-06 23:39:00,65.1,45.0,29.83,East,80,0.0,0.0,48,0.00,,---,0.00,VWS V14.01,2013-06-07 03:39:00,
2013-06-06 23:42:00,65.1,45.0,29.83,East,80,0.0,0.0,48,0.00,,---,0.00,VWS V14.01,2013-06-07 03:42:00,
2013-06-06 23:43:00,65.1,45.0,29.83,East,80,0.0,0.0,48,0.00,,---,0.00,VWS V14.01,2013-06-07 03:43:00,
2013-06-06 23:44:00,65.1,45.0,29.83,East,80,0.0,0.0,48,0.00,,---,0.00,VWS V14.01,2013-06-07 03:44:00,
2013-06-06 23:47:00,65.1,45.0,29.83,NNW,331,0.0,0.0,48,0.00,,---,0.00,VWS V14.01,2013-06-07 03:47:00,
2013-06-06 23:48:00,65.1,45.5,29.83,NNW,331,0.0,0.0,49,0.00,,---,0.00,VWS V14.01,2013-06-07 03:48:00,
2013-06-06 23:49:00,65.1,45.5,29.83,ESE,117,0.0,0.0,49,0.00,,---,0.00,VWS V14.01,2013-06-07 03:49:00,
2013-06-06 23:53:00,65.1,45.5,29.83,ESE,121,0.0,0.0,49,0.00,,---,0.00,VWS V14.01,2013-06-07 03:53:00,
2013-06-06 23:54:00,65.1,45.5,29.83,ESE,121,0.0,0.0,49,0.00,,---,0.00,VWS V14.01,2013-06-07 03:54:00,
2013-06-06 23:55:00,65.1,45.5,29.83,ESE,121,0.0,0.0,49,0.00,,---,0.00,VWS V14.01,2013-06-07 03:55:00,
2013-06-06 23:58:00,65.1,46.0,29.83,ESE,121,0.0,0.0,50,0.00,,---,0.00,VWS V14.01,2013-06-07 03:58:00,
2013-06-06 23:59:00,65.1,46.0,29.83,ESE,121,0.0,0.0,50,0.00,,---,0.00,VWS V14.01,2013-06-07 03:59:00,